FW0869 Weather Reports


Display with metric or nautical units.
time (UTC)temp
F
wind
direction
speed
MPH
gust
MPH
rain 1hr
in
rain 24hr
in
rain mn
in
humidity
%
barometer
mb
20260831234118 81 78 2.0 4.0 0.00 0.00 0.00 32 1021.8
20260831234112 81 69 2.0 4.0 0.00 0.00 0.00 31 1021.8
20260831233905 81 69 3.0 7.0 0.00 0.00 0.00 32 1021.8
20260831233803 81 69 3.0 7.0 0.00 0.00 0.00 32 1021.8
20260831233703 82 69 3.0 7.0 0.00 0.00 0.00 31 1021.8
20260831233604 82 69 3.0 7.0 0.00 0.00 0.00 31 1021.8
20260831233503 82 69 3.0 7.0 0.00 0.00 0.00 31 1021.8
20260831233403 82 29 4.0 7.0 0.00 0.00 0.00 30 1021.8
20260831233303 82 29 4.0 7.0 0.00 0.00 0.00 31 1021.8
20260831233213 82 67 4.0 7.0 0.00 0.00 0.00 32 1021.8
20260831233206 82 69 4.0 7.0 0.00 0.00 0.00 31 1021.8
20260831232855 82 81 3.0 7.0 0.00 0.00 0.00 31 1021.8
20260831232755 82 15 3.0 7.0 0.00 0.00 0.00 31 1021.8
20260831232649 82 98 3.0 7.0 0.00 0.00 0.00 30 1021.8
20260831232549 82 103 4.0 7.0 0.00 0.00 0.00 30 1021.8
20260831232520 82 81 4.0 8.0 0.00 0.00 0.00 30 1021.8
20260831232449 82 92 4.0 8.0 0.00 0.00 0.00 30 1021.8
20260831232349 82 49 4.0 8.0 0.00 0.00 0.00 30 1021.8
20260831232247 82 79 4.0 8.0 0.00 0.00 0.00 31 1021.8
20260831232141 82 88 5.0 8.0 0.00 0.00 0.00 30 1021.8
20260831232128 82 26 5.0 9.0 0.00 0.00 0.00 30 1021.8
20260831231941 82 46 5.0 10.0 0.00 0.00 0.00 31 1021.8
20260831231842 82 65 5.0 10.0 0.00 0.00 0.00 30 1021.8
20260831231741 82 92 5.0 10.0 0.00 0.00 0.00 30 1021.8
20260831231646 82 63 5.0 10.0 0.00 0.00 0.00 31 1021.8
20260831231521 82 30 4.0 10.0 0.00 0.00 0.00 30 1021.8
20260831231440 82 67 4.0 10.0 0.00 0.00 0.00 29 1021.8
20260831231348 83 107 4.0 10.0 0.00 0.00 0.00 30 1021.8
20260831231127 83 72 3.0 10.0 0.00 0.00 0.00 30 1021.8
20260831230930 83 74 3.0 8.0 0.00 0.00 0.00 31 1021.8
20260831230827 83 91 3.0 8.0 0.00 0.00 0.00 30 1021.8
20260831230727 83 104 3.0 7.0 0.00 0.00 0.00 30 1021.8
20260831230632 83 104 3.0 7.0 0.00 0.00 0.00 32 1021.8
20260831230626 83 104 3.0 7.0 0.00 0.00 0.00 30 1021.8
20260831230419 83 105 3.0 7.0 0.00 0.00 0.00 30 1021.8
20260831230319 83 94 3.0 7.0 0.00 0.00 0.00 30 1021.8
20260831230219 83 82 4.0 7.0 0.00 0.00 0.00 30 1021.8
20260831230115 83 79 3.0 7.0 0.00 0.00 0.00 31 1021.8
20260831230020 83 91 3.0 7.0 0.00 0.00 0.00 30 1021.9
20260831230015 83 98 3.0 6.0 0.00 0.00 0.00 30 1021.9
20260831225915 83 109 3.0 6.0 0.00 0.00 0.00 31 1021.8
20260831225815 83 85 3.0 6.0 0.00 0.00 0.00 30 1021.9
20260831225713 83 107 3.0 6.0 0.00 0.00 0.00 33 1021.9
20260831225607 83 86 3.0 9.0 0.00 0.00 0.00 31 1021.9
20260831225521 83 51 4.0 9.0 0.00 0.00 0.00 31 1021.9
20260831225507 83 48 4.0 9.0 0.00 0.00 0.00 31 1021.9
20260831225412 83 46 4.0 9.0 0.00 0.00 0.00 32 1022.0
20260831225204 83 40 4.0 9.0 0.00 0.00 0.00 34 1022.0
20260831225101 82 101 4.0 9.0 0.00 0.00 0.00 31 1021.9
20260831225018 82 78 4.0 9.0 0.00 0.00 0.00 31 1022.0
20260831225001 82 86 4.0 9.0 0.00 0.00 0.00 33 1022.0
20260831224901 82 317 5.0 9.0 0.00 0.00 0.00 32 1022.0
20260831224759 82 41 5.0 9.0 0.00 0.00 0.00 32 1022.0
20260831224657 82 49 5.0 9.0 0.00 0.00 0.00 31 1022.2
20260831224553 82 54 5.0 9.0 0.00 0.00 0.00 31 1022.0
20260831224514 82 10 4.0 9.0 0.00 0.00 0.00 31 1022.2
20260831224451 82 46 4.0 9.0 0.00 0.00 0.00 31 1022.2
20260831224349 83 17 4.0 9.0 0.00 0.00 0.00 31 1022.2
20260831224250 83 53 4.0 9.0 0.00 0.00 0.00 30 1022.2
20260831224149 83 59 5.0 9.0 0.00 0.00 0.00 30 1022.2
20260831224045 83 16 5.0 9.0 0.00 0.00 0.00 31 1022.2
20260831224015 83 34 4.0 9.0 0.00 0.00 0.00 31 1022.2
20260831223946 83 25 4.0 9.0 0.00 0.00 0.00 31 1022.2
20260831223845 83 31 4.0 9.0 0.00 0.00 0.00 32 1022.3
20260831223745 83 332 4.0 9.0 0.00 0.00 0.00 32 1022.2
20260831223643 83 51 4.0 9.0 0.00 0.00 0.00 31 1022.2
20260831223539 83 64 4.0 9.0 0.00 0.00 0.00 32 1022.2
20260831223514 83 46 4.0 9.0 0.00 0.00 0.00 32 1022.2
20260831223440 83 44 5.0 9.0 0.00 0.00 0.00 33 1022.3
20260831223339 83 74 4.0 9.0 0.00 0.00 0.00 31 1022.3
20260831223239 83 42 4.0 9.0 0.00 0.00 0.00 33 1022.3
20260831223139 83 49 4.0 10.0 0.00 0.00 0.00 32 1022.3
20260831223040 83 314 4.0 10.0 0.00 0.00 0.00 33 1022.3
20260831223013 83 32 4.0 10.0 0.00 0.00 0.00 33 1022.3
20260831222940 83 19 4.0 10.0 0.00 0.00 0.00 32 1022.2
20260831222839 83 81 4.0 10.0 0.00 0.00 0.00 31 1022.3
20260831222739 83 57 4.0 10.0 0.00 0.00 0.00 31 1022.3
20260831222639 83 59 4.0 10.0 0.00 0.00 0.00 31 1022.3
20260831222539 83 67 3.0 10.0 0.00 0.00 0.00 33 1022.3
20260831222513 83 36 3.0 10.0 0.00 0.00 0.00 31 1022.3
20260831222439 83 35 3.0 10.0 0.00 0.00 0.00 31 1022.3
20260831222335 83 55 3.0 10.0 0.00 0.00 0.00 31 1022.3
20260831222241 83 79 3.0 10.0 0.00 0.00 0.00 32 1022.3
20260831222036 83 355 3.0 6.0 0.00 0.00 0.00 34 1022.3
20260831222013 83 0 3.0 6.0 0.00 0.00 0.00 34 1022.3
20260831221935 83 15 3.0 6.0 0.00 0.00 0.00 31 1022.3
20260831221835 82 81 3.0 7.0 0.00 0.00 0.00 32 1022.4
20260831221735 82 76 3.0 7.0 0.00 0.00 0.00 35 1022.4
20260831221636 82 57 3.0 7.0 0.00 0.00 0.00 32 1022.4
20260831221533 82 57 3.0 7.0 0.00 0.00 0.00 32 1022.4
20260831221513 82 57 3.0 7.0 0.00 0.00 0.00 33 1022.4
20260831221433 82 57 3.0 7.0 0.00 0.00 0.00 33 1022.4
20260831221334 82 99 3.0 7.0 0.00 0.00 0.00 32 1022.4
20260831221234 82 70 3.0 7.0 0.00 0.00 0.00 32 1022.4
20260831221127 82 104 3.0 8.0 0.00 0.00 0.00 32 1022.4
20260831221037 82 74 3.0 8.0 0.00 0.00 0.00 31 1022.5
20260831221031 82 58 3.0 8.0 0.00 0.00 0.00 31 1022.5
20260831220827 82 117 3.0 8.0 0.00 0.00 0.00 32 1022.4
20260831220733 82 119 3.0 8.0 0.00 0.00 0.00 31 1022.4
20260831220727 82 101 3.0 8.0 0.00 0.00 0.00 32 1022.4
20260831220433 82 101 3.0 8.0 0.00 0.00 0.00 34 1022.5
20260831220234 82 37 3.0 8.0 0.00 0.00 0.00 32 1022.5
20260831220027 82 72 3.0 7.0 0.00 0.00 0.00 32 1022.4
20260831220013 82 57 3.0 7.0 0.00 0.00 0.00 32 1022.4
20260831215923 82 49 3.0 8.0 0.00 0.00 0.00 31 1022.4
20260831215830 82 99 4.0 9.0 0.00 0.00 0.00 32 1022.4
20260831215623 82 160 4.0 10.0 0.00 0.00 0.00 33 1022.4
20260831215512 82 170 5.0 10.0 0.00 0.00 0.00 31 1022.4
20260831215423 82 74 5.0 10.0 0.00 0.00 0.00 32 1022.4
20260831215323 82 77 5.0 10.0 0.00 0.00 0.00 34 1022.4
20260831215223 82 59 5.0 10.0 0.00 0.00 0.00 32 1022.3
20260831215140 82 155 6.0 10.0 0.00 0.00 0.00 32 1022.4
20260831215026 82 140 6.0 10.0 0.00 0.00 0.00 31 1022.4
20260831214820 82 71 5.0 10.0 0.00 0.00 0.00 32 1022.4
20260831214717 82 57 5.0 10.0 0.00 0.00 0.00 33 1022.4
20260831214617 82 70 4.0 10.0 0.00 0.00 0.00 31 1022.3
20260831214519 82 96 4.0 10.0 0.00 0.00 0.00 33 1022.4
20260831214513 82 73 4.0 10.0 0.00 0.00 0.00 33 1022.4
20260831214417 82 17 5.0 10.0 0.00 0.00 0.00 31 1022.4
20260831214318 82 74 4.0 10.0 0.00 0.00 0.00 31 1022.5
20260831214217 82 76 4.0 10.0 0.00 0.00 0.00 31 1022.5
20260831214117 82 81 4.0 10.0 0.00 0.00 0.00 31 1022.4
20260831214019 82 116 3.0 8.0 0.00 0.00 0.00 32 1022.5
20260831214013 82 113 3.0 8.0 0.00 0.00 0.00 32 1022.5
20260831213916 82 61 3.0 8.0 0.00 0.00 0.00 30 1022.5
20260831213817 82 92 4.0 8.0 0.00 0.00 0.00 31 1022.5
20260831213715 83 94 3.0 8.0 0.00 0.00 0.00 31 1022.5
20260831213622 83 103 4.0 8.0 0.00 0.00 0.00 30 1022.5
20260831213511 83 80 4.0 9.0 0.00 0.00 0.00 31 1022.6
20260831213411 83 87 4.0 9.0 0.00 0.00 0.00 31 1022.6
20260831213311 83 88 4.0 9.0 0.00 0.00 0.00 32 1022.6
20260831213211 83 127 4.0 9.0 0.00 0.00 0.00 32 1022.6
20260831213111 82 67 4.0 9.0 0.00 0.00 0.00 31 1022.6
20260831213011 82 136 4.0 9.0 0.00 0.00 0.00 31 1022.6
20260831212911 82 136 4.0 9.0 0.00 0.00 0.00 33 1022.8
20260831212811 82 146 4.0 9.0 0.00 0.00 0.00 31 1022.8
20260831212711 82 117 4.0 9.0 0.00 0.00 0.00 30 1022.8
20260831212611 82 136 4.0 8.0 0.00 0.00 0.00 31 1022.8
20260831212515 82 117 4.0 7.0 0.00 0.00 0.00 31 1022.8
20260831212511 82 102 4.0 7.0 0.00 0.00 0.00 31 1022.8
20260831212418 82 49 4.0 7.0 0.00 0.00 0.00 31 1022.9
20260831212211 82 55 3.0 7.0 0.00 0.00 0.00 32 1022.8
20260831212111 82 86 3.0 7.0 0.00 0.00 0.00 32 1022.9
20260831212015 82 142 3.0 7.0 0.00 0.00 0.00 33 1022.9
20260831212011 82 171 3.0 7.0 0.00 0.00 0.00 33 1022.9
20260831211911 82 140 3.0 7.0 0.00 0.00 0.00 34 1022.9
20260831211811 82 162 2.0 7.0 0.00 0.00 0.00 34 1022.9
20260831211711 82 176 2.0 7.0 0.00 0.00 0.00 33 1023.0
20260831211619 82 127 2.0 7.0 0.00 0.00 0.00 33 1022.9
20260831211508 81 97 2.0 6.0 0.00 0.00 0.00 34 1023.0
20260831211414 81 67 2.0 6.0 0.00 0.00 0.00 33 1023.0
20260831211208 81 67 3.0 8.0 0.00 0.00 0.00 34 1023.0
20260831211106 81 67 4.0 8.0 0.00 0.00 0.00 31 1023.0
20260831211007 81 67 4.0 8.0 0.00 0.00 0.00 33 1023.0
20260831210914 81 67 4.0 8.0 0.00 0.00 0.00 31 1023.0
20260831210714 81 67 4.0 8.0 0.00 0.00 0.00 33 1023.0
20260831210512 81 31 4.0 8.0 0.00 0.00 0.00 34 1023.0
20260831210508 81 38 4.0 8.0 0.00 0.00 0.00 34 1023.0
20260831210407 81 65 4.0 8.0 0.00 0.00 0.00 33 1023.0
20260831210307 81 55 4.0 8.0 0.00 0.00 0.00 32 1023.0
20260831210207 81 80 4.0 8.0 0.00 0.00 0.00 33 1023.1
20260831210118 81 40 3.0 8.0 0.00 0.00 0.00 33 1023.1
20260831210111 81 75 3.0 8.0 0.00 0.00 0.00 33 1023.1
20260831205907 81 142 3.0 8.0 0.00 0.00 0.00 34 1023.1
20260831205810 81 134 3.0 8.0 0.00 0.00 0.00 33 1023.0
20260831205603 81 88 3.0 8.0 0.00 0.00 0.00 35 1023.1
20260831205508 81 118 3.0 8.0 0.00 0.00 0.00 33 1023.1
20260831205503 81 139 3.0 8.0 0.00 0.00 0.00 33 1023.1
20260831205410 81 84 3.0 8.0 0.00 0.00 0.00 34 1023.1
20260831205203 81 42 4.0 9.0 0.00 0.00 0.00 33 1023.1
20260831205103 81 42 4.0 9.0 0.00 0.00 0.00 33 1023.1
20260831205003 81 72 5.0 9.0 0.00 0.00 0.00 34 1023.1
20260831204911 81 61 5.0 9.0 0.00 0.00 0.00 33 1023.1
20260831204703 81 34 4.0 9.0 0.00 0.00 0.00 34 1023.1
20260831204614 81 28 5.0 9.0 0.00 0.00 0.00 33 1023.2
20260831204608 81 28 5.0 9.0 0.00 0.00 0.00 34 1023.2
20260831204403 81 61 5.0 9.0 0.00 0.01 0.00 33 1023.4
20260831204310 81 108 5.0 9.0 0.00 0.01 0.00 34 1023.2
20260831204114 81 119 4.0 9.0 0.00 0.01 0.00 34 1023.2
20260831204107 81 117 4.0 8.0 0.00 0.01 0.00 33 1023.4
20260831203903 81 108 4.0 8.0 0.00 0.02 0.00 33 1023.5
20260831203759 81 61 4.0 8.0 0.00 0.02 0.00 34 1023.4
20260831203659 81 91 4.0 10.0 0.00 0.02 0.00 33 1023.5
20260831203559 81 90 4.0 10.0 0.00 0.02 0.00 33 1023.5
20260831203508 81 47 4.0 10.0 0.00 0.02 0.00 32 1023.5
20260831203459 81 112 4.0 10.0 0.00 0.02 0.00 32 1023.5
20260831203359 81 93 4.0 10.0 0.00 0.02 0.00 35 1023.5
20260831203259 81 129 4.0 10.0 0.00 0.02 0.00 35 1023.5
20260831203200 81 105 4.0 10.0 0.00 0.02 0.00 33 1023.5
20260831203100 82 90 4.0 10.0 0.00 0.02 0.00 32 1023.6
20260831203009 82 83 4.0 10.0 0.00 0.02 0.00 33 1023.6
20260831202959 82 105 4.0 10.0 0.00 0.02 0.00 33 1023.6
20260831202859 82 94 4.0 10.0 0.00 0.02 0.00 33 1023.6
20260831202759 82 79 3.0 10.0 0.00 0.02 0.00 32 1023.6
20260831202659 82 103 3.0 9.0 0.00 0.02 0.00 32 1023.6
20260831202600 82 121 3.0 9.0 0.00 0.02 0.00 35 1023.7
20260831202509 81 168 3.0 9.0 0.00 0.02 0.00 35 1023.7
20260831202500 81 168 3.0 9.0 0.00 0.02 0.00 33 1023.7
20260831202413 81 82 3.0 9.0 0.00 0.02 0.00 34 1023.7
20260831202059 81 144 3.0 9.0 0.00 0.02 0.00 34 1023.7
20260831202005 81 141 3.0 9.0 0.00 0.02 0.00 35 1023.8
20260831202000 81 79 3.0 9.0 0.00 0.02 0.00 33 1023.8
20260831201856 81 92 3.0 9.0 0.00 0.02 0.00 32 1023.8
20260831201802 81 106 3.0 9.0 0.00 0.02 0.00 33 1023.8
20260831201555 81 117 3.0 7.0 0.00 0.02 0.00 33 1023.8
20260831201504 82 117 3.0 9.0 0.00 0.02 0.00 36 1023.8
20260831201455 81 117 3.0 9.0 0.00 0.02 0.00 36 1023.8
20260831201355 81 117 3.0 9.0 0.00 0.02 0.00 33 1023.8
20260831201255 81 118 3.0 9.0 0.00 0.02 0.00 33 1023.8
20260831201153 81 117 3.0 9.0 0.00 0.02 0.00 32 1023.8
20260831201053 81 127 3.0 9.0 0.00 0.02 0.00 33 1023.9
20260831201005 81 164 2.0 9.0 0.00 0.02 0.00 33 1023.9
20260831201000 81 164 2.0 9.0 0.00 0.02 0.00 33 1023.9
20260831200753 81 164 2.0 9.0 0.00 0.02 0.00 34 1023.9
20260831200654 81 148 2.0 9.0 0.00 0.02 0.00 34 1023.8
20260831200502 81 125 2.0 9.0 0.00 0.02 0.00 34 1023.8
20260831200454 81 80 2.0 9.0 0.00 0.02 0.00 34 1023.8
20260831200246 81 34 2.0 6.0 0.00 0.02 0.00 35 1023.9
20260831200141 81 10 2.0 6.0 0.00 0.02 0.00 34 1023.9
20260831200052 81 134 2.0 6.0 0.00 0.02 0.00 35 1023.9
20260831200046 81 134 2.0 6.0 0.00 0.02 0.00 34 1023.9
20260831195839 81 134 2.0 6.0 0.00 0.02 0.00 36 1023.9
20260831195739 81 134 2.0 6.0 0.00 0.02 0.00 36 1023.9
20260831195635 80 134 3.0 6.0 0.00 0.02 0.00 38 1023.9
20260831195533 80 128 3.0 6.0 0.00 0.02 0.00 35 1023.9
20260831195502 80 126 3.0 6.0 0.00 0.02 0.00 36 1023.9
20260831195433 80 85 3.0 6.0 0.00 0.02 0.00 36 1023.9
20260831195333 80 130 3.0 6.0 0.00 0.02 0.00 34 1023.9
20260831195241 80 99 3.0 6.0 0.00 0.02 0.00 34 1023.9
20260831194958 80 63 3.0 8.0 0.00 0.02 0.00 34 1023.9
20260831194925 80 63 3.0 8.0 0.00 0.02 0.00 34 1023.9
20260831194825 80 105 3.0 8.0 0.00 0.02 0.00 36 1024.1
20260831194724 80 78 3.0 8.0 0.00 0.02 0.00 34 1024.1
20260831194621 80 98 3.0 8.0 0.00 0.02 0.00 33 1023.9
20260831194530 80 65 3.0 8.0 0.00 0.02 0.00 33 1024.1
20260831194523 80 65 3.0 8.0 0.00 0.02 0.00 33 1024.1
20260831194328 80 104 3.0 8.0 0.00 0.02 0.00 35 1024.1
20260831194015 80 109 3.0 7.0 0.00 0.02 0.00 34 1024.2
20260831193958 80 123 3.0 7.0 0.00 0.02 0.00 34 1024.2
20260831193915 80 157 3.0 7.0 0.00 0.02 0.00 36 1024.1
20260831193813 80 157 2.0 7.0 0.00 0.02 0.00 37 1024.1
20260831193713 80 160 2.0 7.0 0.00 0.02 0.00 37 1024.1
20260831193613 80 109 2.0 7.0 0.00 0.02 0.00 38 1024.2
20260831193513 80 66 2.0 7.0 0.00 0.02 0.00 37 1024.2
20260831193459 80 66 2.0 7.0 0.00 0.02 0.00 37 1024.2
20260831193412 80 66 2.0 7.0 0.00 0.02 0.00 35 1024.2
20260831193313 80 66 2.0 7.0 0.00 0.02 0.00 35 1024.3
20260831193211 80 66 1.0 7.0 0.00 0.02 0.00 35 1024.2
20260831193110 80 76 1.0 7.0 0.00 0.02 0.00 33 1024.2
20260831193010 80 88 1.0 6.0 0.00 0.02 0.00 35 1024.2
20260831192956 80 94 1.0 6.0 0.00 0.02 0.00 35 1024.2
20260831192913 80 62 1.0 4.0 0.00 0.02 0.00 35 1024.2
20260831192705 80 63 1.0 4.0 0.00 0.02 0.00 38 1024.3
20260831192605 80 62 2.0 5.0 0.00 0.02 0.00 35 1024.2
20260831192456 80 62 2.0 7.0 0.00 0.02 0.00 33 1024.3
20260831192359 79 62 2.0 7.0 0.00 0.02 0.00 34 1024.3
20260831192259 79 62 2.0 7.0 0.00 0.02 0.00 36 1024.3
20260831192159 79 63 3.0 7.0 0.00 0.02 0.00 36 1024.3
20260831192059 79 63 3.0 7.0 0.00 0.02 0.00 35 1024.3
20260831191959 79 62 3.0 7.0 0.00 0.02 0.00 34 1024.3
20260831191859 79 63 3.0 7.0 0.00 0.02 0.00 33 1024.3
20260831191759 79 63 3.0 7.0 0.00 0.02 0.00 34 1024.3
20260831191700 80 63 3.0 7.0 0.00 0.02 0.00 34 1024.4
20260831191558 80 76 2.0 7.0 0.00 0.02 0.00 36 1024.4
20260831191458 80 90 2.0 6.0 0.00 0.02 0.00 37 1024.4
20260831191356 80 113 2.0 6.0 0.00 0.02 0.00 36 1024.4
20260831191300 80 113 2.0 6.0 0.00 0.02 0.00 35 1024.3
20260831191103 80 92 1.0 5.0 0.00 0.02 0.00 35 1024.4
20260831190952 79 74 1.0 5.0 0.00 0.02 0.00 35 1024.4
20260831190849 80 74 1.0 5.0 0.00 0.02 0.00 37 1024.4
20260831190747 79 151 2.0 5.0 0.00 0.02 0.00 37 1024.4
20260831190647 79 151 2.0 5.0 0.00 0.02 0.00 36 1024.4
20260831190547 79 151 2.0 5.0 0.00 0.02 0.00 36 1024.5
20260831190446 79 93 2.0 5.0 0.00 0.02 0.00 37 1024.4
20260831190348 79 93 2.0 5.0 0.00 0.02 0.00 37 1024.5
20260831190141 79 121 2.0 5.0 0.00 0.02 0.00 37 1024.5
20260831190051 78 121 2.0 5.0 0.00 0.02 0.00 37 1024.5
20260831185940 78 169 2.0 5.0 0.00 0.02 0.00 36 1024.5
20260831185837 78 188 2.0 5.0 0.00 0.02 0.00 36 1024.7
20260831185735 78 137 2.0 5.0 0.00 0.02 0.00 38 1024.5
20260831185634 78 159 2.0 5.0 0.00 0.02 0.00 37 1024.5
20260831185535 78 159 2.0 5.0 0.00 0.02 0.00 37 1024.5
20260831185434 78 159 2.0 6.0 0.00 0.02 0.00 36 1024.5
20260831185331 78 159 2.0 6.0 0.00 0.02 0.00 36 1024.5
20260831185231 78 159 2.0 6.0 0.00 0.02 0.00 37 1024.5
20260831185131 78 155 2.0 6.0 0.00 0.02 0.00 39 1024.5
20260831185031 78 119 2.0 6.0 0.00 0.02 0.00 38 1024.5
20260831184928 78 118 2.0 6.0 0.00 0.02 0.00 39 1024.5
20260831184825 78 118 2.0 6.0 0.00 0.02 0.00 37 1024.5
20260831184723 78 118 1.0 6.0 0.00 0.02 0.00 37 1024.5
20260831184622 78 144 1.0 6.0 0.00 0.02 0.00 38 1024.5
20260831184523 78 153 1.0 6.0 0.00 0.02 0.00 37 1024.5
20260831184422 78 202 1.0 5.0 0.00 0.02 0.00 37 1024.5
20260831184319 78 202 1.0 5.0 0.00 0.02 0.00 36 1024.5
20260831184224 78 202 1.0 5.0 0.00 0.02 0.00 37 1024.5
20260831184027 78 162 1.0 4.0 0.00 0.02 0.00 37 1024.5
20260831183916 78 162 1.0 4.0 0.00 0.02 0.00 38 1024.5
20260831183813 78 162 1.0 4.0 0.00 0.02 0.00 36 1024.5
20260831183711 78 162 1.0 4.0 0.00 0.02 0.00 38 1024.5
20260831183610 78 162 1.0 4.0 0.00 0.02 0.00 36 1024.5
20260831183511 78 162 1.0 4.0 0.00 0.02 0.00 37 1024.5
20260831183410 78 161 1.0 3.0 0.00 0.02 0.00 36 1024.5
20260831183307 78 150 1.0 3.0 0.00 0.02 0.00 37 1024.5
20260831183205 78 150 1.0 3.0 0.00 0.02 0.00 39 1024.5
20260831183105 78 150 1.0 3.0 0.00 0.02 0.00 37 1024.7
20260831183004 78 150 1.0 3.0 0.00 0.02 0.00 36 1024.7
20260831182905 78 106 1.0 3.0 0.00 0.02 0.00 37 1024.5
20260831182810 78 106 1.0 4.0 0.00 0.02 0.00 35 1024.7
20260831182559 78 112 1.0 4.0 0.00 0.02 0.00 35 1024.7
20260831182509 78 112 1.0 4.0 0.00 0.02 0.00 35 1024.7
20260831182502 78 112 1.0 4.0 0.00 0.02 0.00 35 1024.7
20260831182259 78 112 2.0 4.0 0.00 0.02 0.00 36 1024.5
20260831182053 78 112 1.0 4.0 0.00 0.02 0.00 36 1024.7
20260831182004 78 112 1.0 4.0 0.00 0.02 0.00 35 1024.7
20260831181852 78 106 1.0 4.0 0.00 0.02 0.00 34 1024.7
20260831181752 79 132 1.0 6.0 0.00 0.02 0.00 35 1024.7
20260831181659 79 132 1.0 6.0 0.00 0.02 0.00 38 1024.7
20260831181456 78 132 1.0 6.0 0.00 0.02 0.00 37 1024.7
20260831181345 78 132 1.0 6.0 0.00 0.02 0.00 39 1024.7
20260831181241 78 151 1.0 6.0 0.00 0.02 0.00 37 1024.5
20260831181141 78 122 1.0 6.0 0.00 0.02 0.00 37 1024.7
20260831181041 78 122 2.0 6.0 0.00 0.02 0.00 37 1024.7
20260831180951 78 122 2.0 6.0 0.00 0.02 0.00 37 1024.7
20260831180944 78 118 2.0 6.0 0.00 0.02 0.00 38 1024.7
20260831180738 78 105 2.0 6.0 0.00 0.02 0.00 41 1024.7
20260831180638 78 105 2.0 6.0 0.00 0.02 0.00 39 1024.7
20260831180544 78 125 2.0 6.0 0.00 0.02 0.00 37 1024.8
20260831180336 78 105 2.0 6.0 0.00 0.02 0.00 37 1024.8
20260831180235 77 119 2.0 6.0 0.00 0.02 0.00 39 1024.8
20260831180133 77 119 1.0 6.0 0.00 0.02 0.00 41 1024.8
20260831180032 77 111 1.0 6.0 0.00 0.02 0.00 41 1024.8
20260831175939 77 113 1.0 3.0 0.00 0.02 0.00 43 1024.8
20260831175828 77 113 1.0 3.0 0.00 0.02 0.00 39 1024.8
20260831175725 77 113 1.0 3.0 0.00 0.02 0.00 39 1024.8
20260831175630 77 87 1.0 3.0 0.00 0.02 0.00 38 1024.8
20260831175423 77 87 1.0 4.0 0.00 0.02 0.00 38 1024.8
20260831175322 77 87 1.0 4.0 0.00 0.02 0.00 37 1024.8
20260831175221 77 87 1.0 4.0 0.00 0.02 0.00 40 1024.9
20260831175121 76 87 1.0 4.0 0.00 0.02 0.00 39 1024.8
20260831175020 76 88 1.0 4.0 0.00 0.02 0.00 37 1024.8
20260831174919 76 87 2.0 4.0 0.00 0.02 0.00 38 1024.9
20260831174816 76 87 2.0 4.0 0.00 0.02 0.00 38 1024.9
20260831174710 76 87 2.0 4.0 0.00 0.02 0.00 38 1024.9
20260831174611 76 87 2.0 4.0 0.00 0.02 0.00 39 1024.9
20260831174511 76 89 2.0 4.0 0.00 0.02 0.00 39 1024.9
20260831174422 76 135 2.0 4.0 0.00 0.02 0.00 39 1024.8
20260831174415 76 135 2.0 4.0 0.00 0.02 0.00 39 1024.9
20260831174206 76 135 2.0 4.0 0.00 0.02 0.00 37 1024.9
20260831174112 77 135 2.0 4.0 0.00 0.02 0.00 38 1024.8
20260831173904 77 135 2.0 4.0 0.00 0.02 0.00 38 1024.9
20260831173804 77 135 2.0 4.0 0.00 0.02 0.00 38 1024.8
20260831173701 77 135 2.0 4.0 0.00 0.02 0.00 40 1024.9
20260831173601 77 135 2.0 4.0 0.00 0.02 0.00 40 1024.9
20260831173500 76 82 2.0 4.0 0.00 0.02 0.00 39 1024.9
20260831173410 76 146 2.0 4.0 0.00 0.02 0.00 41 1024.9
20260831173403 76 138 2.0 5.0 0.00 0.02 0.00 39 1025.0
20260831173203 76 110 2.0 5.0 0.00 0.02 0.00 38 1024.9
20260831172956 76 110 2.0 5.0 0.00 0.02 0.00 39 1024.9
20260831172904 76 110 2.0 5.0 0.00 0.02 0.00 40 1025.0
20260831172752 76 110 2.0 5.0 0.00 0.02 0.00 39 1024.9
20260831172649 76 110 2.0 5.0 0.00 0.02 0.00 38 1024.9
20260831172547 76 110 2.0 6.0 0.00 0.02 0.00 39 1025.0
20260831172446 76 109 3.0 6.0 0.00 0.02 0.00 39 1024.9
20260831172348 76 157 3.0 6.0 0.00 0.02 0.00 39 1024.9
20260831172246 76 94 3.0 6.0 0.00 0.02 0.00 40 1025.0
20260831172142 76 136 3.0 6.0 0.00 0.02 0.00 40 1024.9
20260831172043 76 124 3.0 6.0 0.00 0.02 0.00 39 1025.0
20260831171943 76 124 3.0 6.0 0.00 0.02 0.00 37 1024.9
20260831171851 76 121 3.0 6.0 0.00 0.02 0.00 37 1024.9
20260831171844 76 96 3.0 6.0 0.00 0.02 0.00 38 1025.0
20260831171639 76 97 3.0 6.0 0.00 0.02 0.00 37 1024.9
20260831171539 76 111 2.0 6.0 0.00 0.02 0.00 37 1025.0
20260831171438 76 91 2.0 5.0 0.00 0.02 0.00 39 1024.9
20260831171337 76 101 2.0 4.0 0.00 0.02 0.00 39 1025.0
20260831171236 76 103 2.0 4.0 0.00 0.02 0.00 37 1025.0
20260831171028 77 126 2.0 5.0 0.00 0.02 0.00 39 1025.0
20260831170929 77 80 2.0 5.0 0.00 0.02 0.00 37 1025.0
20260831170829 77 80 3.0 5.0 0.00 0.02 0.00 36 1025.0
20260831170728 77 65 3.0 6.0 0.00 0.02 0.00 39 1025.0
20260831170625 77 94 3.0 6.0 0.00 0.02 0.00 39 1025.0
20260831170523 76 107 3.0 6.0 0.00 0.02 0.00 38 1024.9
20260831170423 76 121 3.0 6.0 0.00 0.02 0.00 40 1025.0
20260831170323 76 153 3.0 6.0 0.00 0.02 0.00 41 1025.0
20260831170223 76 153 3.0 6.0 0.00 0.02 0.00 39 1024.9
20260831170118 76 135 3.0 6.0 0.00 0.02 0.00 40 1025.0
20260831170017 76 200 3.0 6.0 0.00 0.02 0.00 39 1025.0
20260831165923 76 140 3.0 7.0 0.00 0.02 0.00 39 1025.0
20260831165716 76 140 3.0 7.0 0.00 0.02 0.00 38 1025.0
20260831165613 76 103 3.0 7.0 0.00 0.02 0.00 40 1025.1
20260831165511 76 129 3.0 7.0 0.00 0.02 0.00 39 1025.0
20260831165429 76 123 3.0 7.0 0.00 0.02 0.00 38 1025.0
20260831165422 76 109 3.0 7.0 0.00 0.02 0.00 41 1025.0
20260831165116 76 169 3.0 7.0 0.00 0.02 0.00 38 1025.0
20260831164922 76 117 3.0 6.0 0.00 0.02 0.00 38 1025.0
20260831164916 76 119 2.0 6.0 0.00 0.02 0.00 37 1025.0
20260831164559 76 122 2.0 6.0 0.00 0.02 0.00 38 1025.0
20260831164459 76 115 2.0 6.0 0.00 0.02 0.00 41 1025.0
20260831164358 76 142 2.0 6.0 0.00 0.02 0.00 39 1025.0
20260831164309 76 140 2.0 6.0 0.00 0.02 0.00 37 1025.0
20260831164302 76 135 2.0 5.0 0.00 0.02 0.00 39 1024.9
20260831164053 76 132 2.0 5.0 0.00 0.02 0.00 41 1024.9
20260831163953 76 151 1.0 4.0 0.00 0.02 0.00 39 1024.9
20260831163852 76 113 1.0 4.0 0.00 0.02 0.00 39 1024.9
20260831163804 76 141 1.0 4.0 0.00 0.02 0.00 39 1024.9
20260831163653 76 113 1.0 4.0 0.00 0.02 0.00 39 1024.9
20260831163558 76 131 1.0 4.0 0.00 0.02 0.00 38 1024.9
20260831163350 76 90 1.0 4.0 0.00 0.02 0.00 38 1024.8
20260831163249 76 74 1.0 3.0 0.00 0.02 0.00 39 1024.9
20260831163146 76 74 1.0 3.0 0.00 0.02 0.00 42 1024.9
20260831163041 76 74 1.0 3.0 0.00 0.02 0.00 39 1024.9
20260831162941 76 74 1.0 3.0 0.00 0.02 0.00 38 1024.8
20260831162841 76 108 1.0 3.0 0.00 0.02 0.00 38 1024.8
20260831162751 76 108 1.0 3.0 0.00 0.02 0.00 38 1024.8
20260831162640 76 108 1.0 3.0 0.00 0.02 0.00 37 1024.8
20260831162534 76 108 1.0 3.0 0.00 0.02 0.00 39 1024.8
20260831162435 76 108 1.0 4.0 0.00 0.02 0.00 42 1024.8
20260831162335 76 140 1.0 4.0 0.00 0.02 0.00 40 1024.8
20260831162234 76 124 1.0 4.0 0.00 0.02 0.00 41 1024.7
20260831162134 76 132 1.0 4.0 0.00 0.02 0.00 41 1024.8
20260831162033 76 94 1.0 4.0 0.00 0.02 0.00 38 1024.7
20260831161933 76 94 1.0 4.0 0.00 0.02 0.00 40 1024.7
20260831161830 76 117 1.0 4.0 0.00 0.02 0.00 39 1024.7
20260831161731 76 117 1.0 4.0 0.00 0.02 0.00 43 1024.5
20260831161628 76 139 2.0 4.0 0.00 0.02 0.00 43 1024.7
20260831161529 76 139 2.0 4.0 0.00 0.02 0.00 43 1024.7
20260831161322 76 158 2.0 4.0 0.00 0.02 0.00 43 1024.7
20260831161233 76 158 2.0 4.0 0.00 0.02 0.00 42 1024.7
20260831161226 76 121 2.0 4.0 0.00 0.02 0.00 41 1024.7
20260831161019 76 121 2.0 4.0 0.00 0.02 0.00 42 1024.7
20260831160916 76 109 2.0 4.0 0.00 0.02 0.00 41 1024.7
20260831160817 76 109 2.0 4.0 0.00 0.02 0.00 39 1024.5
20260831160727 76 106 2.0 4.0 0.00 0.02 0.00 39 1024.7
20260831160616 76 104 2.0 4.0 0.00 0.02 0.00 42 1024.5
20260831160512 76 109 2.0 4.0 0.00 0.02 0.00 42 1024.7
20260831160411 76 109 2.0 4.0 0.00 0.02 0.00 42 1024.5
20260831160310 76 103 1.0 4.0 0.00 0.02 0.00 42 1024.7
20260831160210 76 173 1.0 4.0 0.00 0.02 0.00 44 1024.7
20260831160111 76 126 1.0 4.0 0.00 0.02 0.00 41 1024.5
20260831160007 76 126 1.0 6.0 0.00 0.02 0.00 42 1024.5
20260831155905 76 126 1.0 6.0 0.00 0.02 0.00 45 1024.5
20260831155804 76 169 2.0 6.0 0.00 0.02 0.00 43 1024.5
20260831155705 76 169 1.0 6.0 0.00 0.02 0.00 42 1024.5
20260831155605 75 181 1.0 6.0 0.00 0.02 0.00 43 1024.5
20260831155501 75 181 1.0 6.0 0.00 0.02 0.00 43 1024.5
20260831155358 75 148 1.0 6.0 0.00 0.02 0.00 45 1024.5
20260831155258 75 147 1.0 6.0 0.00 0.02 0.00 43 1024.5
20260831155210 75 148 1.0 6.0 0.00 0.02 0.00 43 1024.4
20260831155202 75 156 1.0 6.0 0.00 0.02 0.00 46 1024.5
20260831154956 75 166 1.0 5.0 0.00 0.02 0.00 43 1024.4
20260831154857 75 149 1.0 3.0 0.00 0.02 0.00 43 1024.4
20260831154756 75 136 1.0 3.0 0.00 0.02 0.00 45 1024.4
20260831154654 75 80 1.0 3.0 0.00 0.02 0.00 45 1024.4
20260831154553 74 78 1.0 3.0 0.00 0.02 0.00 44 1024.5
20260831154453 74 66 1.0 3.0 0.00 0.02 0.00 41 1024.4
20260831154350 74 67 1.0 3.0 0.00 0.02 0.00 41 1024.4
20260831154307 74 98 2.0 3.0 0.00 0.02 0.00 41 1024.4
20260831154301 74 98 1.0 3.0 0.00 0.02 0.00 41 1024.4
20260831153841 74 98 1.0 3.0 0.00 0.02 0.00 43 1024.4
20260831153741 74 98 1.0 3.0 0.00 0.02 0.00 42 1024.4
20260831153641 74 98 1.0 3.0 0.00 0.02 0.00 40 1024.4
20260831153544 74 96 1.0 3.0 0.00 0.02 0.00 42 1024.4
20260831153334 74 99 1.0 3.0 0.00 0.02 0.00 43 1024.4
20260831153252 74 99 1.0 3.0 0.00 0.02 0.00 43 1024.4
20260831153138 74 99 1.0 3.0 0.00 0.02 0.00 42 1024.4
20260831152935 74 99 1.0 3.0 0.00 0.02 0.00 44 1024.4
20260831152729 74 100 1.0 3.0 0.00 0.02 0.00 43 1024.4
20260831152629 74 100 1.0 3.0 0.00 0.02 0.00 41 1024.4
20260831152528 73 99 1.0 3.0 0.00 0.02 0.00 42 1024.4
20260831152430 73 99 0.0 3.0 0.00 0.02 0.00 40 1024.4
20260831152222 73 71 0.0 2.0 0.00 0.02 0.00 40 1024.4
20260831152122 73 71 1.0 3.0 0.00 0.02 0.00 40 1024.4
20260831152022 73 71 1.0 3.0 0.00 0.02 0.00 41 1024.4
20260831151928 73 71 1.0 3.0 0.00 0.02 0.00 43 1024.4
20260831151721 73 71 1.0 3.0 0.00 0.02 0.00 40 1024.4
20260831151618 73 71 1.0 3.0 0.00 0.02 0.00 39 1024.3
20260831151516 73 71 1.0 3.0 0.00 0.02 0.00 40 1024.4
20260831151413 73 71 1.0 3.0 0.00 0.02 0.00 39 1024.3
20260831151310 73 71 1.0 3.0 0.00 0.02 0.00 40 1024.3
20260831151210 73 71 1.0 3.0 0.00 0.02 0.00 46 1024.3
20260831151110 73 71 1.0 3.0 0.00 0.02 0.00 46 1024.3
20260831151018 73 71 1.0 3.0 0.00 0.02 0.00 44 1024.3
20260831150705 72 92 1.0 3.0 0.00 0.02 0.00 43 1024.3
20260831150605 72 67 0.0 3.0 0.00 0.02 0.00 43 1024.3
20260831150512 72 67 0.0 2.0 0.00 0.02 0.00 45 1024.4
20260831150303 72 326 0.0 2.0 0.00 0.02 0.00 42 1024.4
20260831150203 72 326 0.0 2.0 0.00 0.02 0.00 44 1024.4
20260831150109 72 326 0.0 2.0 0.00 0.02 0.00 47 1024.4
20260831145859 71 326 0.0 2.0 0.00 0.02 0.00 47 1024.4
20260831145757 71 326 0.0 2.0 0.00 0.02 0.00 43 1024.4
20260831145656 71 326 0.0 2.0 0.00 0.02 0.00 44 1024.4
20260831145603 71 326 0.0 2.0 0.00 0.02 0.00 47 1024.4
20260831145556 71 326 0.0 3.0 0.00 0.02 0.00 47 1024.4
20260831145348 71 326 0.0 3.0 0.00 0.02 0.00 48 1024.5
20260831145246 71 326 0.0 3.0 0.00 0.02 0.00 45 1024.5
20260831145147 71 326 0.0 3.0 0.00 0.02 0.00 47 1024.4
20260831145047 71 326 0.0 3.0 0.00 0.02 0.00 47 1024.5
20260831144946 70 257 0.0 3.0 0.00 0.02 0.00 49 1024.4
20260831144840 70 257 0.0 3.0 0.00 0.02 0.00 49 1024.5
20260831144740 70 257 0.0 3.0 0.00 0.02 0.00 47 1024.7
20260831144641 70 257 1.0 3.0 0.00 0.02 0.00 47 1024.5
20260831144540 70 257 1.0 3.0 0.00 0.02 0.00 45 1024.5
20260831144440 70 292 0.0 3.0 0.00 0.02 0.00 48 1024.5
20260831144336 70 292 1.0 3.0 0.00 0.02 0.00 47 1024.7
20260831144234 70 292 1.0 3.0 0.00 0.02 0.00 45 1024.5
20260831144135 69 292 1.0 3.0 0.00 0.02 0.00 47 1024.5
20260831144035 69 292 1.0 3.0 0.00 0.02 0.00 48 1024.5
20260831143934 69 292 1.0 3.0 0.00 0.02 0.00 49 1024.5
20260831143828 69 292 1.0 3.0 0.00 0.02 0.00 50 1024.5
20260831143736 69 292 1.0 3.0 0.00 0.02 0.00 50 1024.5
20260831143539 68 247 1.0 4.0 0.00 0.02 0.00 51 1024.5
20260831143428 68 247 1.0 4.0 0.00 0.02 0.00 52 1024.5
20260831143324 68 247 1.0 4.0 0.00 0.02 0.00 52 1024.5
20260831143223 68 247 1.0 4.0 0.00 0.02 0.00 52 1024.5
20260831143123 67 247 1.0 4.0 0.00 0.02 0.00 53 1024.5
20260831143022 67 247 1.0 4.0 0.00 0.02 0.00 53 1024.5
20260831142922 67 247 1.0 4.0 0.00 0.02 0.00 53 1024.4
20260831142819 67 247 1.0 4.0 0.00 0.02 0.00 54 1024.5
20260831142717 67 247 1.0 4.0 0.00 0.02 0.00 54 1024.4
20260831142616 67 260 1.0 4.0 0.00 0.02 0.00 55 1024.5
20260831142517 66 256 1.0 4.0 0.00 0.02 0.00 56 1024.5
20260831142416 66 279 1.0 3.0 0.00 0.02 0.00 57 1024.4
20260831142312 66 233 0.0 3.0 0.00 0.02 0.00 57 1024.4
20260831142211 66 233 0.0 3.0 0.00 0.02 0.00 58 1024.4
20260831142111 66 21 0.0 2.0 0.00 0.02 0.00 58 1024.4
20260831142028 66 21 0.0 2.0 0.00 0.02 0.00 58 1024.4
20260831141917 66 21 0.0 2.0 0.00 0.02 0.00 58 1024.3
20260831141713 65 21 0.0 0.0 0.00 0.02 0.00 59 1024.4
20260831141507 65 21 0.0 0.0 0.00 0.02 0.00 60 1024.3
20260831141405 65 21 0.0 0.0 0.00 0.02 0.00 60 1024.3
20260831141305 65 21 0.0 0.0 0.00 0.02 0.00 60 1024.3
20260831141202 65 21 0.0 0.0 0.00 0.02 0.00 61 1024.3
20260831141108 65 21 0.0 1.0 0.00 0.02 0.00 61 1024.2
20260831140858 65 21 0.0 2.0 0.00 0.02 0.00 61 1024.3
20260831140759 65 21 0.0 2.0 0.00 0.02 0.00 60 1024.2
20260831140553 64 21 0.0 2.0 0.00 0.02 0.00 60 1024.3
20260831140503 64 21 0.0 2.0 0.00 0.02 0.00 60 1024.2
20260831140352 64 21 0.0 2.0 0.00 0.02 0.00 59 1024.2
20260831140252 64 21 0.0 2.0 0.00 0.02 0.00 59 1024.1
20260831140150 64 21 0.0 2.0 0.00 0.02 0.00 60 1024.2
20260831140051 64 21 0.0 2.0 0.00 0.02 0.00 60 1024.2
20260831135949 64 21 0.0 1.0 0.00 0.02 0.00 60 1024.2
20260831135849 64 21 0.0 0.0 0.00 0.02 0.00 60 1024.3
20260831135641 64 21 0.0 1.0 0.00 0.02 0.00 59 1024.2
20260831135540 63 21 0.0 1.0 0.00 0.02 0.00 59 1024.1
20260831135441 63 21 0.0 1.0 0.00 0.02 0.00 59 1024.1
20260831135340 63 21 0.0 1.0 0.00 0.02 0.00 59 1024.2
20260831135237 63 21 0.0 1.0 0.00 0.02 0.00 58 1024.1
20260831135135 63 21 0.0 2.0 0.00 0.02 0.00 59 1023.9
20260831135034 63 21 0.0 2.0 0.00 0.02 0.00 58 1024.1
20260831134934 63 21 0.0 2.0 0.00 0.02 0.00 58 1024.1
20260831134834 63 21 0.0 2.0 0.00 0.02 0.00 58 1023.9
20260831134732 63 21 0.0 3.0 0.00 0.02 0.00 58 1023.9
20260831134632 63 21 0.0 3.0 0.00 0.02 0.00 58 1023.9
20260831134531 62 21 1.0 3.0 0.00 0.02 0.00 58 1023.9
20260831134431 62 21 1.0 3.0 0.00 0.02 0.00 58 1023.8
20260831134328 62 21 1.0 3.0 0.00 0.02 0.00 58 1023.8
20260831134225 62 21 1.0 3.0 0.00 0.02 0.00 58 1023.8
20260831134131 62 21 1.0 3.0 0.00 0.02 0.00 59 1023.8
20260831133925 62 21 1.0 3.0 0.00 0.02 0.00 60 1023.8
20260831133822 62 21 1.0 3.0 0.00 0.02 0.00 60 1023.8
20260831133718 62 21 1.0 2.0 0.00 0.02 0.00 60 1023.8
20260831133617 62 21 1.0 4.0 0.00 0.02 0.00 61 1023.8
20260831133516 62 21 1.0 4.0 0.00 0.02 0.00 59 1023.7
20260831133416 62 21 1.0 4.0 0.00 0.02 0.00 59 1023.8
20260831133317 62 21 1.0 4.0 0.00 0.02 0.00 59 1023.7
20260831133217 62 21 1.0 4.0 0.00 0.02 0.00 60 1023.7
20260831133114 62 21 1.0 4.0 0.00 0.02 0.00 60 1023.7
20260831133014 62 21 1.0 4.0 0.00 0.02 0.00 60 1023.7
20260831132912 62 21 1.0 4.0 0.00 0.02 0.00 61 1023.7
20260831132810 62 16 1.0 4.0 0.00 0.02 0.00 61 1023.7
20260831132707 62 16 0.0 4.0 0.00 0.02 0.00 60 1023.7
20260831132604 62 177 0.0 3.0 0.00 0.02 0.00 60 1023.6
20260831132504 62 176 0.0 1.0 0.00 0.02 0.00 60 1023.6
20260831132405 62 177 0.0 1.0 0.00 0.02 0.00 60 1023.6
20260831132306 62 176 0.0 1.0 0.00 0.02 0.00 60 1023.5
20260831132200 62 177 0.0 1.0 0.00 0.02 0.00 60 1023.6
20260831132105 62 177 0.0 1.0 0.00 0.02 0.00 60 1023.5
20260831131909 62 177 0.0 1.0 0.00 0.02 0.00 60 1023.5
20260831131903 62 176 0.0 1.0 0.00 0.02 0.00 60 1023.5
20260831131723 62 177 0.0 0.0 0.00 0.02 0.00 60 1023.5
20260831131503 61 177 0.0 0.0 0.00 0.02 0.00 61 1023.4
20260831131152 61 177 0.0 0.0 0.00 0.02 0.00 61 1023.4
20260831131051 61 177 0.0 0.0 0.00 0.02 0.00 60 1023.4
20260831130951 61 177 0.0 1.0 0.00 0.02 0.00 60 1023.4
20260831130858 61 177 0.0 1.0 0.00 0.02 0.00 60 1023.2
20260831130747 61 177 0.0 1.0 0.00 0.02 0.00 60 1023.2
20260831130641 61 177 0.0 1.0 0.00 0.02 0.00 60 1023.2
20260831130540 61 177 0.0 1.0 0.00 0.02 0.00 60 1023.4
20260831130441 61 177 0.0 2.0 0.00 0.02 0.00 60 1023.2
20260831130340 61 176 0.0 3.0 0.00 0.02 0.00 60 1023.2
20260831130240 61 177 1.0 4.0 0.00 0.02 0.00 60 1023.2
20260831130136 61 177 1.0 5.0 0.00 0.02 0.00 60 1023.2
20260831130035 61 176 1.0 5.0 0.00 0.02 0.00 60 1023.2
20260831125941 61 176 1.0 5.0 0.00 0.02 0.00 60 1023.2
20260831125734 61 177 1.0 5.0 0.00 0.02 0.00 60 1023.2
20260831125632 61 177 1.0 5.0 0.00 0.02 0.00 60 1023.1
20260831125532 61 176 1.0 5.0 0.00 0.02 0.00 60 1023.1
20260831125433 61 176 1.0 5.0 0.00 0.02 0.00 60 1023.2
20260831125333 60 177 1.0 5.0 0.00 0.02 0.00 60 1023.1
20260831125232 60 177 0.0 5.0 0.00 0.02 0.00 60 1023.1
20260831125225 60 165 0.0 5.0 0.00 0.02 0.00 60 1023.1
20260831125132 60 223 0.0 2.0 0.00 0.02 0.00 59 1023.1
20260831125030 60 223 0.0 1.0 0.00 0.02 0.00 59 1023.0
20260831124929 60 223 0.0 0.0 0.00 0.02 0.00 59 1023.1
20260831124828 60 223 0.0 0.0 0.00 0.02 0.00 59 1023.0
20260831124719 60 223 0.0 0.0 0.00 0.02 0.00 59 1023.0
20260831124626 60 223 0.0 1.0 0.00 0.02 0.00 59 1023.0
20260831124524 60 223 0.0 1.0 0.00 0.02 0.00 59 1023.0
20260831124424 60 223 0.0 2.0 0.00 0.02 0.00 59 1023.1
20260831124322 60 223 0.0 2.0 0.00 0.02 0.00 59 1023.0
20260831124214 60 223 0.0 2.0 0.00 0.02 0.00 59 1023.1
20260831124120 60 223 0.0 2.0 0.00 0.02 0.00 59 1023.0
20260831124019 60 223 0.0 2.0 0.00 0.02 0.00 59 1023.0
20260831123918 60 223 0.0 2.0 0.00 0.02 0.00 58 1023.0
20260831123816 60 223 0.0 2.0 0.00 0.02 0.00 59 1023.0
20260831123709 60 223 0.0 2.0 0.00 0.02 0.00 59 1023.0
20260831123614 60 223 0.0 2.0 0.00 0.02 0.00 58 1023.0
20260831123513 60 223 0.0 2.0 0.00 0.02 0.00 58 1022.9
20260831123412 60 223 0.0 2.0 0.00 0.02 0.00 59 1022.9
20260831123312 60 223 0.0 2.0 0.00 0.02 0.00 59 1022.9
20260831123213 60 223 0.0 2.0 0.00 0.02 0.00 59 1022.9
20260831123112 60 223 0.0 2.0 0.00 0.02 0.00 59 1022.9
20260831123010 60 223 0.0 2.0 0.00 0.02 0.00 58 1023.0
20260831122908 60 223 0.0 2.0 0.00 0.02 0.00 59 1022.9
20260831122808 60 223 1.0 2.0 0.00 0.02 0.00 59 1023.0
20260831122708 60 223 1.0 2.0 0.00 0.02 0.00 58 1023.0
20260831122607 60 223 1.0 3.0 0.00 0.02 0.00 58 1022.9
20260831122505 60 223 1.0 3.0 0.00 0.02 0.00 58 1022.9
20260831122405 60 223 1.0 3.0 0.00 0.02 0.00 58 1023.0
20260831122305 60 223 1.0 3.0 0.00 0.02 0.00 58 1022.9
20260831122208 60 223 1.0 3.0 0.00 0.02 0.00 58 1022.9
20260831122202 60 223 1.0 3.0 0.00 0.02 0.00 58 1022.9
20260831122101 60 223 1.0 3.0 0.00 0.02 0.00 58 1022.9
20260831121959 60 223 1.0 3.0 0.00 0.02 0.00 58 1022.9
20260831121858 60 223 1.0 3.0 0.00 0.02 0.00 58 1022.9
20260831121810 60 223 1.0 3.0 0.00 0.02 0.00 59 1022.9
20260831121804 60 223 2.0 3.0 0.00 0.02 0.00 59 1022.9
20260831121559 60 223 1.0 3.0 0.00 0.02 0.00 59 1022.9
20260831121458 60 223 1.0 3.0 0.00 0.02 0.00 59 1022.9
20260831121358 60 223 1.0 3.0 0.00 0.02 0.00 59 1022.8
20260831121256 60 223 1.0 3.0 0.00 0.02 0.00 59 1022.8
20260831121206 60 223 1.0 3.0 0.00 0.02 0.00 59 1022.8
20260831121156 60 223 1.0 3.0 0.00 0.02 0.00 59 1022.8
20260831121054 60 223 1.0 3.0 0.00 0.02 0.00 60 1022.8
20260831120953 60 223 1.0 3.0 0.00 0.02 0.00 60 1022.8
20260831120849 60 220 1.0 3.0 0.00 0.02 0.00 60 1022.8
20260831120749 60 238 1.0 3.0 0.00 0.02 0.00 60 1022.9
20260831120704 59 26 1.0 3.0 0.00 0.02 0.00 61 1022.8
20260831120648 59 26 1.0 3.0 0.00 0.02 0.00 61 1022.8
20260831120548 59 26 1.0 3.0 0.00 0.02 0.00 61 1022.9
20260831120446 59 26 1.0 3.0 0.00 0.02 0.00 61 1022.8
20260831120341 59 26 1.0 3.0 0.00 0.02 0.00 61 1022.8
20260831120240 60 26 1.0 3.0 0.00 0.02 0.00 61 1022.6
20260831120202 60 26 1.0 3.0 0.00 0.02 0.00 61 1022.6
20260831120140 60 26 1.0 3.0 0.00 0.02 0.00 61 1022.8
20260831120040 60 26 1.0 3.0 0.00 0.02 0.00 61 1022.8
20260831115940 60 26 1.0 3.0 0.00 0.02 0.00 61 1022.8
20260831115840 60 26 1.0 3.0 0.00 0.02 0.00 61 1022.8
20260831115738 60 26 1.0 3.0 0.00 0.02 0.00 61 1022.8
20260831115701 60 26 1.0 2.0 0.00 0.02 0.00 61 1022.8
20260831115638 60 26 1.0 2.0 0.00 0.02 0.00 61 1022.6
20260831115536 60 26 0.0 2.0 0.00 0.02 0.00 61 1022.6
20260831115434 60 26 0.0 2.0 0.00 0.02 0.00 61 1022.6
20260831115339 60 26 0.0 2.0 0.00 0.02 0.00 61 1022.6
20260831115201 60 26 0.0 1.0 0.00 0.02 0.00 61 1022.6
20260831115132 60 26 0.0 1.0 0.00 0.02 0.00 61 1022.6
20260831115030 60 26 0.0 0.0 0.00 0.02 0.00 61 1022.6
20260831114931 60 26 0.0 1.0 0.00 0.02 0.00 61 1022.6
20260831114724 60 26 0.0 1.0 0.00 0.02 0.00 61 1022.6
20260831114700 60 26 0.0 1.0 0.00 0.02 0.00 61 1022.6
20260831114624 60 26 0.0 1.0 0.00 0.02 0.00 61 1022.6
20260831114524 60 26 0.0 1.0 0.00 0.02 0.00 61 1022.6
20260831114431 60 26 0.0 1.0 0.00 0.02 0.00 61 1022.6
20260831114225 60 26 0.0 1.0 0.00 0.02 0.00 61 1022.6
20260831114158 60 26 0.0 1.0 0.00 0.02 0.00 61 1022.6
20260831114125 60 26 0.0 1.0 0.00 0.02 0.00 60 1022.6
20260831114034 60 26 0.0 2.0 0.00 0.02 0.00 60 1022.8
20260831113719 60 26 0.0 3.0 0.00 0.02 0.00 61 1022.8
20260831113656 60 26 0.0 3.0 0.00 0.02 0.00 61 1022.8
20260831113618 60 26 0.0 3.0 0.00 0.02 0.00 61 1022.8
20260831113518 60 26 0.0 3.0 0.00 0.02 0.00 61 1022.8
20260831113418 60 26 1.0 3.0 0.00 0.02 0.00 61 1022.8
20260831113318 60 26 1.0 4.0 0.00 0.02 0.00 61 1022.8
20260831113218 60 26 1.0 4.0 0.00 0.02 0.00 61 1022.8
20260831113156 60 26 1.0 4.0 0.00 0.02 0.00 62 1022.8
20260831113119 60 26 1.0 4.0 0.00 0.02 0.00 62 1022.8
20260831113019 60 26 0.0 4.0 0.00 0.02 0.00 61 1022.8
20260831112918 60 26 0.0 4.0 0.00 0.02 0.00 61 1022.8
20260831112818 60 26 1.0 4.0 0.00 0.02 0.00 61 1022.8
20260831112718 60 26 1.0 4.0 0.00 0.02 0.00 61 1022.6
20260831112655 60 26 1.0 4.0 0.00 0.02 0.00 61 1022.6
20260831112614 60 26 1.0 4.0 0.00 0.02 0.00 61 1022.6
20260831112512 60 26 1.0 4.0 0.00 0.02 0.00 61 1022.6
20260831112412 60 26 1.0 4.0 0.00 0.02 0.00 61 1022.6
20260831112312 60 26 1.0 4.0 0.00 0.02 0.00 61 1022.5
20260831112301 60 264 1.0 3.0 0.00 0.02 0.00 61 1022.5
20260831112108 60 264 2.0 3.0 0.00 0.02 0.00 61 1022.5
20260831112007 60 264 2.0 3.0 0.00 0.02 0.00 60 1022.5
20260831111906 60 264 2.0 3.0 0.00 0.02 0.00 60 1022.5
20260831111804 60 264 2.0 3.0 0.00 0.02 0.00 60 1022.5
20260831111704 60 264 2.0 3.0 0.00 0.02 0.00 60 1022.5
20260831111654 60 264 2.0 3.0 0.00 0.02 0.00 60 1022.5
20260831111604 60 264 2.0 3.0 0.00 0.02 0.00 60 1022.5
20260831111503 60 264 1.0 3.0 0.00 0.02 0.00 60 1022.5
20260831111426 59 264 1.0 3.0 0.00 0.02 0.00 60 1022.5
20260831111205 59 264 1.0 2.0 0.00 0.02 0.00 60 1022.5
20260831111000 59 264 1.0 3.0 0.00 0.02 0.00 60 1022.4
20260831110900 59 264 1.0 3.0 0.00 0.02 0.00 60 1022.5
20260831110800 59 264 1.0 3.0 0.00 0.02 0.00 60 1022.5
20260831110654 59 264 1.0 3.0 0.00 0.02 0.00 60 1022.5
20260831110600 59 264 1.0 3.0 0.00 0.02 0.00 60 1022.5
20260831110501 59 264 1.0 3.0 0.00 0.02 0.00 60 1022.5
20260831110400 59 264 1.0 3.0 0.00 0.02 0.00 60 1022.5
20260831110300 59 264 1.0 3.0 0.00 0.02 0.00 60 1022.6
20260831110153 59 264 1.0 3.0 0.00 0.02 0.00 60 1022.5
20260831110058 59 264 1.0 3.0 0.00 0.02 0.00 60 1022.6
20260831105958 59 264 1.0 3.0 0.00 0.02 0.00 60 1022.6
20260831105858 59 264 0.0 2.0 0.00 0.02 0.00 60 1022.6
20260831105807 59 264 0.0 2.0 0.00 0.02 0.00 60 1022.6
20260831105800 59 264 0.0 2.0 0.00 0.02 0.00 60 1022.5
20260831105556 59 264 0.0 2.0 0.00 0.02 0.00 61 1022.5
20260831105510 59 264 1.0 3.0 0.00 0.02 0.00 61 1022.5
20260831105152 59 264 1.0 3.0 0.00 0.02 0.00 61 1022.5
20260831105052 59 264 1.0 3.0 0.00 0.02 0.00 61 1022.5
20260831104952 59 264 1.0 3.0 0.00 0.02 0.00 61 1022.5
20260831104853 59 264 2.0 3.0 0.00 0.02 0.00 61 1022.5
20260831104752 59 264 2.0 3.0 0.00 0.02 0.00 61 1022.5
20260831104652 59 264 2.0 3.0 0.00 0.02 0.00 61 1022.5
20260831104553 59 264 2.0 3.0 0.00 0.02 0.00 61 1022.5
20260831104452 59 264 2.0 3.0 0.00 0.02 0.00 61 1022.4
20260831104353 59 264 2.0 3.0 0.00 0.02 0.00 61 1022.4
20260831104252 59 264 2.0 3.0 0.00 0.02 0.00 62 1022.5
20260831104152 59 264 2.0 3.0 0.00 0.02 0.00 62 1022.5
20260831104052 59 264 1.0 3.0 0.00 0.02 0.00 62 1022.5
20260831103952 59 264 1.0 3.0 0.00 0.02 0.00 62 1022.5
20260831103852 59 264 1.0 3.0 0.00 0.02 0.00 63 1022.4
20260831103752 59 264 1.0 3.0 0.00 0.02 0.00 63 1022.4
20260831103700 59 264 1.0 3.0 0.00 0.02 0.00 63 1022.5
20260831103452 59 264 1.0 3.0 0.00 0.02 0.00 64 1022.4
20260831103352 59 264 1.0 3.0 0.00 0.02 0.00 65 1022.4
20260831103248 59 264 1.0 3.0 0.00 0.02 0.00 65 1022.4
20260831103155 59 264 2.0 3.0 0.00 0.02 0.00 65 1022.4
20260831102955 59 264 2.0 3.0 0.00 0.02 0.00 66 1022.4
20260831102759 59 264 2.0 3.0 0.00 0.02 0.00 67 1022.5
20260831102753 59 264 1.0 3.0 0.00 0.02 0.00 68 1022.4
20260831102548 59 264 1.0 3.0 0.00 0.02 0.00 68 1022.4
20260831102447 59 190 1.0 3.0 0.00 0.02 0.00 68 1022.4
20260831102348 59 190 1.0 3.0 0.00 0.02 0.00 69 1022.4
20260831102246 59 190 1.0 3.0 0.00 0.02 0.00 69 1022.4
20260831102150 60 190 1.0 3.0 0.00 0.02 0.00 69 1022.4
20260831101942 60 190 1.0 3.0 0.00 0.02 0.00 69 1022.4
20260831101842 60 190 1.0 3.0 0.00 0.02 0.00 69 1022.4
20260831101753 60 190 1.0 3.0 0.00 0.02 0.00 68 1022.4
20260831101747 60 190 1.0 4.0 0.00 0.02 0.00 68 1022.4
20260831101542 60 190 2.0 4.0 0.00 0.02 0.00 68 1022.4
20260831101442 60 190 2.0 4.0 0.00 0.02 0.00 68 1022.5
20260831101342 60 190 2.0 4.0 0.00 0.02 0.00 68 1022.4
20260831101242 60 190 2.0 4.0 0.00 0.02 0.00 68 1022.4
20260831101142 60 190 2.0 4.0 0.00 0.02 0.00 68 1022.4
20260831101042 60 190 2.0 4.0 0.00 0.02 0.00 67 1022.4
20260831100942 60 190 2.0 5.0 0.00 0.02 0.00 67 1022.4
20260831100842 60 190 2.0 5.0 0.00 0.02 0.00 67 1022.4
20260831100742 60 190 2.0 5.0 0.00 0.02 0.00 67 1022.5
20260831100651 60 190 3.0 5.0 0.00 0.02 0.00 67 1022.5
20260831100642 60 190 3.0 6.0 0.00 0.02 0.00 67 1022.5
20260831100542 61 190 3.0 6.0 0.00 0.02 0.00 67 1022.5
20260831100448 61 190 3.0 6.0 0.00 0.02 0.00 66 1022.4
20260831100243 61 162 3.0 6.0 0.00 0.02 0.00 66 1022.4
20260831100138 61 162 3.0 6.0 0.00 0.02 0.00 66 1022.4
20260831100038 61 162 3.0 6.0 0.00 0.02 0.00 66 1022.4
20260831095939 61 186 3.0 6.0 0.00 0.02 0.00 65 1022.4
20260831095904 61 152 3.0 6.0 0.00 0.02 0.00 65 1022.4
20260831095750 61 160 3.0 6.0 0.00 0.02 0.00 66 1022.4
20260831095438 61 172 2.0 5.0 0.00 0.02 0.00 65 1022.2
20260831095406 61 161 2.0 5.0 0.00 0.02 0.00 65 1022.2
20260831095138 61 127 1.0 4.0 0.00 0.02 0.00 65 1022.2
20260831095038 61 127 1.0 4.0 0.00 0.02 0.00 64 1022.3
20260831094938 62 127 1.0 4.0 0.00 0.02 0.00 64 1022.3
20260831094838 62 127 1.0 4.0 0.00 0.02 0.00 63 1022.3
20260831094738 62 127 1.0 4.0 0.00 0.02 0.00 63 1022.3
20260831094638 62 127 1.0 4.0 0.00 0.02 0.00 63 1022.3
20260831094538 62 127 1.0 4.0 0.00 0.02 0.00 63 1022.2
20260831094439 62 127 1.0 4.0 0.00 0.02 0.00 63 1022.2
20260831094338 62 277 1.0 4.0 0.00 0.02 0.00 63 1022.2
20260831094234 62 277 1.0 4.0 0.00 0.02 0.00 63 1022.2
20260831094134 62 277 1.0 4.0 0.00 0.02 0.00 63 1022.2
20260831094034 62 277 1.0 4.0 0.00 0.02 0.00 63 1022.2
20260831093934 62 277 1.0 4.0 0.00 0.02 0.00 63 1022.2
20260831093834 62 277 2.0 4.0 0.00 0.02 0.00 63 1022.0
20260831093745 62 277 2.0 4.0 0.00 0.02 0.00 63 1022.0
20260831093738 62 277 2.0 4.0 0.00 0.02 0.00 63 1022.0
20260831093534 62 192 1.0 4.0 0.00 0.02 0.00 64 1022.0
20260831093434 62 192 1.0 4.0 0.00 0.02 0.00 64 1022.0
20260831093334 62 192 1.0 4.0 0.00 0.02 0.00 65 1022.0
20260831093234 62 307 1.0 3.0 0.00 0.02 0.00 66 1022.0
20260831093152 62 307 1.0 3.0 0.00 0.02 0.00 66 1022.0
20260831093134 62 307 1.0 3.0 0.00 0.02 0.00 66 1021.9
20260831093041 62 307 1.0 3.0 0.00 0.02 0.00 66 1022.0
20260831092835 62 307 1.0 3.0 0.00 0.02 0.00 67 1022.0
20260831092734 62 307 0.0 3.0 0.00 0.02 0.00 67 1022.0
20260831092634 62 307 0.0 2.0 0.00 0.02 0.00 68 1022.0
20260831092541 62 307 0.0 2.0 0.00 0.02 0.00 67 1022.0
20260831092330 62 307 0.0 1.0 0.00 0.02 0.00 68 1021.9
20260831092258 62 307 0.0 1.0 0.00 0.02 0.00 68 1022.0
20260831092130 62 307 0.0 2.0 0.00 0.02 0.00 68 1022.0
20260831092030 62 307 0.0 2.0 0.00 0.02 0.00 67 1022.0
20260831091930 62 307 0.0 2.0 0.00 0.02 0.00 67 1022.0
20260831091830 62 307 1.0 2.0 0.00 0.02 0.00 67 1022.2
20260831091741 62 307 1.0 2.0 0.00 0.02 0.00 67 1022.2
20260831091735 62 307 1.0 2.0 0.00 0.02 0.00 67 1022.2
20260831091529 62 307 1.0 2.0 0.00 0.02 0.00 67 1022.0
20260831091430 62 307 1.0 2.0 0.00 0.02 0.00 67 1022.0
20260831091330 62 307 1.0 2.0 0.00 0.02 0.00 68 1022.0
20260831091230 62 307 1.0 2.0 0.00 0.02 0.00 68 1022.0
20260831091151 62 307 1.0 2.0 0.00 0.02 0.00 68 1022.0
20260831091137 62 307 1.0 2.0 0.00 0.02 0.00 68 1021.9
20260831090929 62 307 1.0 2.0 0.00 0.02 0.00 68 1021.9
20260831090830 63 307 0.0 2.0 0.00 0.02 0.00 68 1021.9
20260831090758 63 307 0.0 2.0 0.00 0.02 0.00 68 1021.9
20260831090630 63 307 0.0 2.0 0.00 0.02 0.00 68 1021.9
20260831090530 63 307 1.0 3.0 0.00 0.02 0.00 68 1022.0
20260831090427 63 307 1.0 4.0 0.00 0.02 0.00 68 1022.0
20260831090326 63 307 1.0 4.0 0.00 0.02 0.00 68 1022.0
20260831090226 63 307 1.0 4.0 0.00 0.02 0.00 68 1022.0
20260831090152 63 307 1.0 4.0 0.00 0.02 0.00 68 1022.0
20260831090126 63 307 2.0 4.0 0.00 0.02 0.00 68 1022.0
20260831090026 63 307 2.0 4.0 0.00 0.02 0.00 68 1022.0
20260831085939 63 307 2.0 4.0 0.00 0.02 0.00 68 1022.0
20260831085626 63 307 2.0 4.0 0.00 0.02 0.00 68 1021.9
20260831085526 63 307 2.0 4.0 0.00 0.02 0.00 69 1021.9
20260831085432 63 307 2.0 4.0 0.00 0.02 0.00 69 1021.9
20260831085238 63 307 2.0 4.0 0.00 0.02 0.00 69 1021.9
20260831085231 63 307 2.0 4.0 0.00 0.02 0.00 69 1021.9
20260831085033 63 307 2.0 4.0 0.00 0.02 0.00 68 1021.9
20260831084827 63 307 2.0 4.0 0.00 0.02 0.00 66 1021.9
20260831084726 63 307 2.0 4.0 0.00 0.02 0.00 66 1021.9
20260831084627 63 307 2.0 4.0 0.00 0.02 0.00 67 1021.9
20260831084522 63 307 3.0 5.0 0.00 0.02 0.00 67 1021.9
20260831084421 63 307 3.0 5.0 0.00 0.02 0.00 67 1021.9
20260831084320 63 307 3.0 5.0 0.00 0.02 0.00 67 1021.9
20260831084220 63 307 3.0 5.0 0.00 0.02 0.00 67 1021.9
20260831084149 63 307 3.0 5.0 0.00 0.02 0.00 67 1021.9
20260831084117 63 307 3.0 5.0 0.00 0.02 0.00 67 1021.9
20260831084012 63 307 3.0 5.0 0.00 0.02 0.00 68 1022.0
20260831083912 63 307 3.0 5.0 0.00 0.02 0.00 68 1022.0
20260831083812 63 307 3.0 5.0 0.00 0.02 0.00 68 1022.0
20260831083725 63 314 3.0 5.0 0.00 0.02 0.00 69 1022.0
20260831083719 63 321 3.0 5.0 0.00 0.02 0.00 69 1022.0
20260831083408 63 311 2.0 5.0 0.00 0.02 0.00 69 1022.2
20260831083308 63 311 2.0 4.0 0.00 0.02 0.00 69 1022.2
20260831083206 63 311 2.0 4.0 0.00 0.02 0.00 69 1022.2
20260831083148 63 311 2.0 4.0 0.00 0.02 0.00 69 1022.2
20260831083104 63 311 2.0 5.0 0.00 0.02 0.00 69 1022.2
20260831083000 63 311 2.0 5.0 0.00 0.02 0.00 69 1022.2
20260831082904 63 311 3.0 5.0 0.00 0.02 0.00 69 1022.2
20260831082648 63 311 2.0 5.0 0.00 0.02 0.00 69 1022.2
20260831082555 62 311 2.0 5.0 0.00 0.02 0.00 69 1022.3
20260831082456 62 311 2.0 5.0 0.00 0.02 0.00 70 1022.3
20260831082354 62 311 2.0 5.0 0.00 0.02 0.00 70 1022.3
20260831082254 62 311 2.0 5.0 0.00 0.02 0.00 70 1022.3
20260831082158 62 311 2.0 5.0 0.00 0.02 0.00 70 1022.3
20260831081900 62 280 1.0 3.0 0.00 0.02 0.00 70 1022.3
20260831081642 62 355 1.0 3.0 0.00 0.02 0.00 70 1022.3
20260831081541 62 355 1.0 3.0 0.00 0.02 0.00 70 1022.2
20260831081438 62 355 1.0 3.0 0.00 0.02 0.00 70 1022.0
20260831081336 62 355 1.0 3.0 0.00 0.02 0.00 70 1022.0
20260831081236 62 355 0.0 3.0 0.00 0.02 0.00 70 1022.2
20260831081136 62 355 0.0 3.0 0.00 0.02 0.00 70 1022.2
20260831081039 62 355 0.0 3.0 0.00 0.02 0.00 69 1022.2
20260831080839 62 355 1.0 3.0 0.00 0.02 0.00 69 1022.2
20260831080643 63 355 1.0 4.0 0.00 0.02 0.00 69 1022.2
20260831080631 63 355 1.0 4.0 0.00 0.02 0.00 69 1022.0
20260831080527 63 355 1.0 4.0 0.00 0.02 0.00 69 1022.2
20260831080424 63 355 1.0 4.0 0.00 0.02 0.00 69 1022.2
20260831080322 63 355 2.0 4.0 0.00 0.02 0.00 68 1022.2
20260831080222 63 355 2.0 4.0 0.00 0.02 0.00 68 1022.3
20260831080120 63 355 2.0 4.0 0.00 0.02 0.00 68 1022.3
20260831080023 63 355 2.0 4.0 0.00 0.02 0.00 68 1022.3
20260831075815 63 355 1.0 4.0 0.00 0.02 0.00 68 1022.3
20260831075712 63 355 1.0 4.0 0.00 0.02 0.00 68 1022.3
20260831075643 63 28 1.0 4.0 0.00 0.02 0.00 68 1022.3
20260831075612 63 28 1.0 4.0 0.00 0.02 0.00 68 1022.3
20260831075510 63 9 1.0 3.0 0.00 0.02 0.00 68 1022.4
20260831075413 63 240 1.0 3.0 0.00 0.02 0.00 67 1022.4
20260831075206 63 240 1.0 3.0 0.00 0.02 0.00 67 1022.3
20260831075143 63 240 1.0 3.0 0.00 0.02 0.00 67 1022.4
20260831075106 63 240 1.0 3.0 0.00 0.02 0.00 67 1022.4
20260831075003 63 240 1.0 3.0 0.00 0.02 0.00 67 1022.3
20260831074909 63 240 1.0 3.0 0.00 0.02 0.00 67 1022.3
20260831074702 63 240 1.0 3.0 0.00 0.02 0.00 67 1022.3
20260831074636 63 240 1.0 3.0 0.00 0.02 0.00 67 1022.4
20260831074600 63 240 1.0 3.0 0.00 0.02 0.00 67 1022.4
20260831074457 63 240 1.0 3.0 0.00 0.02 0.00 67 1022.4
20260831074351 63 240 1.0 3.0 0.00 0.02 0.00 67 1022.5
20260831074252 63 240 0.0 3.0 0.00 0.02 0.00 67 1022.5
20260831074152 63 240 0.0 2.0 0.00 0.02 0.00 67 1022.5
20260831074131 63 240 0.0 2.0 0.00 0.02 0.00 67 1022.6
20260831074053 63 112 0.0 2.0 0.00 0.02 0.00 67 1022.6
20260831073951 63 112 0.0 2.0 0.00 0.02 0.00 67 1022.5
20260831073852 63 112 0.0 2.0 0.00 0.02 0.00 67 1022.5
20260831073750 64 112 0.0 2.0 0.00 0.02 0.00 67 1022.5
20260831073650 64 112 0.0 2.0 0.00 0.02 0.00 67 1022.5
20260831073625 64 112 0.0 3.0 0.00 0.02 0.00 67 1022.5
20260831073547 64 112 0.0 3.0 0.00 0.02 0.00 67 1022.5
20260831073447 64 112 1.0 3.0 0.00 0.02 0.00 67 1022.5
20260831073240 64 112 1.0 3.0 0.00 0.02 0.00 67 1022.6
20260831073119 64 112 1.0 3.0 0.00 0.02 0.00 67 1022.6
20260831073040 64 112 1.0 3.0 0.00 0.02 0.00 67 1022.6
20260831072939 64 112 0.0 3.0 0.00 0.02 0.00 67 1022.8
20260831072847 64 112 0.0 3.0 0.00 0.02 0.00 67 1022.8
20260831072614 64 112 0.0 2.0 0.00 0.02 0.00 67 1022.6
20260831072534 64 112 0.0 2.0 0.00 0.02 0.00 66 1022.6
20260831072433 64 112 1.0 3.0 0.00 0.02 0.00 66 1022.6
20260831072334 64 112 1.0 3.0 0.00 0.02 0.00 66 1022.8
20260831072233 64 112 1.0 3.0 0.00 0.02 0.00 66 1022.8
20260831072107 64 112 1.0 3.0 0.00 0.02 0.00 66 1022.6
20260831072030 64 112 1.0 3.0 0.00 0.02 0.00 66 1022.8
20260831071927 64 112 2.0 3.0 0.00 0.02 0.00 66 1022.8
20260831071826 64 112 2.0 3.0 0.00 0.02 0.00 66 1022.8
20260831071741 64 112 2.0 3.0 0.00 0.02 0.00 66 1022.8
20260831071628 64 112 2.0 3.0 0.00 0.02 0.00 66 1022.8
20260831071422 64 112 2.0 3.0 0.00 0.02 0.00 66 1022.8
20260831071318 64 112 2.0 3.0 0.00 0.02 0.00 65 1022.9
20260831071216 64 112 2.0 3.0 0.00 0.02 0.00 65 1022.9
20260831071117 64 112 2.0 3.0 0.00 0.02 0.00 65 1022.9
20260831071054 64 112 2.0 3.0 0.00 0.02 0.00 65 1022.9
20260831071016 64 112 2.0 3.0 0.00 0.02 0.00 65 1022.8
20260831070915 64 112 1.0 3.0 0.00 0.02 0.00 65 1022.8
20260831070812 64 112 1.0 3.0 0.00 0.02 0.00 66 1022.8
20260831070709 64 112 1.0 3.0 0.00 0.02 0.00 66 1022.9
20260831070610 64 112 1.0 3.0 0.00 0.02 0.00 66 1022.8
20260831070549 64 112 1.0 3.0 0.00 0.02 0.00 66 1022.8
20260831070509 64 112 1.0 3.0 0.00 0.02 0.00 66 1022.8
20260831070410 65 112 1.0 3.0 0.00 0.02 0.00 66 1022.8
20260831070304 65 112 1.0 3.0 0.00 0.02 0.00 66 1022.8
20260831070204 65 112 1.0 3.0 0.00 0.02 0.00 65 1022.8
20260831070104 65 112 1.0 4.0 0.00 0.02 0.00 65 1022.8
20260831070044 65 112 1.0 4.0 0.00 0.02 0.00 65 1022.8
20260831070004 65 112 1.0 4.0 0.00 0.02 0.00 65 1022.8
20260831065903 65 112 1.0 4.0 0.00 0.02 0.00 65 1022.8
20260831065759 65 112 1.0 4.0 0.00 0.02 0.00 65 1022.9
20260831065657 65 112 1.0 4.0 0.00 0.02 0.00 65 1022.8
20260831065536 65 112 2.0 4.0 0.00 0.02 0.00 65 1022.8
20260831065458 65 112 2.0 4.0 0.00 0.02 0.00 64 1022.8
20260831065357 65 112 2.0 4.0 0.00 0.02 0.00 64 1022.8
20260831065306 65 112 2.0 4.0 0.00 0.02 0.00 64 1022.8
20260831065030 65 136 1.0 6.0 0.00 0.02 0.00 64 1022.9
20260831064952 65 136 1.0 6.0 0.00 0.02 0.00 64 1022.9
20260831064852 65 136 1.0 6.0 0.00 0.02 0.00 64 1022.8
20260831064748 65 136 1.0 6.0 0.00 0.02 0.00 63 1022.8
20260831064645 66 136 1.0 6.0 0.00 0.02 0.00 63 1022.8
20260831064558 66 136 1.0 6.0 0.00 0.02 0.00 63 1022.8
20260831064551 66 136 1.0 6.0 0.00 0.02 0.00 63 1022.9
20260831064345 66 136 1.0 6.0 0.00 0.02 0.00 63 1022.9
20260831064240 66 136 1.0 6.0 0.00 0.02 0.00 62 1022.8
20260831064140 66 136 1.0 6.0 0.00 0.02 0.00 61 1022.9
20260831064040 66 136 1.0 6.0 0.00 0.02 0.00 61 1022.8
20260831064018 66 136 2.0 6.0 0.00 0.02 0.00 61 1022.8
20260831063940 66 136 2.0 8.0 0.00 0.02 0.00 61 1022.8
20260831063839 66 136 2.0 8.0 0.00 0.02 0.00 61 1022.8
20260831063738 67 136 2.0 8.0 0.00 0.02 0.00 61 1022.9
20260831063638 67 136 2.0 8.0 0.00 0.02 0.00 61 1022.8
20260831063515 67 136 2.0 8.0 0.00 0.02 0.00 60 1022.8
20260831063435 67 136 2.0 8.0 0.00 0.02 0.00 60 1022.8
20260831063334 67 136 2.0 8.0 0.00 0.02 0.00 60 1022.8
20260831063228 67 141 2.0 8.0 0.00 0.02 0.00 60 1022.8
20260831063128 67 127 1.0 8.0 0.00 0.02 0.00 58 1022.8
20260831063028 68 129 1.0 8.0 0.00 0.02 0.00 57 1022.9
20260831063015 68 145 1.0 8.0 0.00 0.02 0.00 57 1022.9
20260831062928 68 144 1.0 5.0 0.00 0.02 0.00 57 1022.9
20260831062827 68 146 1.0 5.0 0.00 0.02 0.00 56 1022.9
20260831062723 68 160 1.0 4.0 0.00 0.02 0.00 56 1022.9
20260831062622 68 120 1.0 4.0 0.00 0.02 0.00 55 1022.9
20260831062522 69 120 1.0 4.0 0.00 0.02 0.00 54 1022.9
20260831062515 69 120 1.0 5.0 0.00 0.02 0.00 54 1022.9
20260831062421 69 120 2.0 5.0 0.00 0.02 0.00 54 1022.8
20260831062322 69 120 2.0 7.0 0.00 0.02 0.00 54 1022.9
20260831062222 69 120 3.0 8.0 0.00 0.02 0.00 54 1022.8
20260831062120 69 99 3.0 12.0 0.00 0.02 0.00 53 1022.9
20260831062013 69 114 4.0 12.0 0.00 0.02 0.00 51 1023.0
20260831061917 70 95 4.0 12.0 0.00 0.02 0.00 51 1022.9
20260831061825 70 95 5.0 12.0 0.00 0.02 0.00 50 1022.9
20260831061618 70 207 6.0 13.0 0.00 0.02 0.00 49 1023.0
20260831061518 70 201 6.0 15.0 0.00 0.02 0.00 47 1023.0
20260831061511 70 201 6.0 15.0 0.00 0.02 0.00 46 1023.0
20260831061422 70 150 6.0 15.0 0.00 0.02 0.00 42 1022.9
20260831061216 70 214 6.0 15.0 0.00 0.02 0.00 42 1022.9
20260831061116 70 185 6.0 15.0 0.00 0.02 0.00 42 1022.8
20260831061020 70 154 7.0 15.0 0.00 0.02 0.00 42 1022.9
20260831060821 69 175 7.0 15.0 0.00 0.02 0.00 43 1022.9
20260831060615 69 194 7.0 15.0 0.00 0.02 0.00 43 1022.9
20260831060510 69 200 7.0 14.0 0.00 0.02 0.00 44 1022.9
20260831060421 69 198 7.0 14.0 0.00 0.02 0.00 44 1022.9
20260831060214 69 175 7.0 14.0 0.00 0.02 0.00 43 1022.9
20260831060123 69 206 7.0 14.0 0.00 0.02 0.00 43 1022.9
20260831060116 69 183 6.0 13.0 0.00 0.02 0.00 44 1022.8
20260831055910 69 152 6.0 11.0 0.00 0.02 0.02 45 1022.9
20260831055810 69 185 6.0 10.0 0.00 0.02 0.02 44 1022.9
20260831055708 69 163 6.0 10.0 0.00 0.02 0.02 44 1022.9
20260831055607 69 169 6.0 11.0 0.00 0.02 0.02 45 1022.9
20260831055509 69 155 6.0 11.0 0.00 0.02 0.02 46 1023.0
20260831055504 69 158 6.0 11.0 0.00 0.02 0.02 46 1023.0
20260831055403 69 180 5.0 11.0 0.00 0.02 0.02 45 1022.9
20260831055305 69 199 5.0 11.0 0.00 0.02 0.02 46 1023.0
20260831055202 69 184 4.0 11.0 0.00 0.02 0.02 45 1022.9
20260831055059 69 158 4.0 11.0 0.00 0.02 0.02 46 1022.9
20260831055007 69 160 3.0 11.0 0.00 0.02 0.02 46 1022.9
20260831054956 69 170 3.0 11.0 0.00 0.02 0.02 46 1022.9
20260831054856 69 161 3.0 11.0 0.00 0.02 0.02 46 1022.9
20260831054803 69 150 2.0 11.0 0.00 0.02 0.02 46 1022.9
20260831054614 69 127 1.0 7.0 0.00 0.02 0.02 47 1023.0
20260831054452 69 298 2.0 7.0 0.00 0.02 0.02 48 1022.9
20260831054351 69 298 2.0 7.0 0.00 0.02 0.02 47 1022.9
20260831054251 69 298 2.0 7.0 0.00 0.02 0.02 47 1023.0
20260831054147 69 298 3.0 7.0 0.00 0.02 0.02 47 1023.0
20260831054045 69 298 4.0 8.0 0.00 0.02 0.02 47 1023.0
20260831054008 70 298 4.0 10.0 0.00 0.02 0.02 47 1023.0
20260831053939 70 298 4.0 10.0 0.00 0.02 0.02 47 1023.1
20260831053847 70 298 5.0 10.0 0.00 0.02 0.02 47 1023.1
20260831053637 70 292 5.0 10.0 0.00 0.02 0.02 46 1023.2
20260831053547 70 263 6.0 11.0 0.00 0.02 0.02 47 1023.2
20260831053540 70 294 6.0 11.0 0.00 0.02 0.02 47 1023.2
20260831053336 70 288 7.0 11.0 0.00 0.02 0.02 46 1023.4
20260831053235 70 261 7.0 12.0 0.00 0.02 0.02 46 1023.4
20260831053136 70 269 7.0 12.0 0.00 0.02 0.02 46 1023.4
20260831053036 70 271 7.0 12.0 0.00 0.02 0.02 45 1023.4
20260831053005 70 298 7.0 12.0 0.00 0.02 0.02 45 1023.4
20260831052936 70 272 7.0 12.0 0.00 0.02 0.02 45 1023.4
20260831052836 70 252 7.0 12.0 0.00 0.02 0.02 45 1023.2
20260831052734 70 288 7.0 14.0 0.00 0.02 0.02 45 1023.1
20260831052634 70 239 7.0 14.0 0.00 0.02 0.02 45 1023.2
20260831052535 70 265 7.0 14.0 0.00 0.02 0.02 45 1023.1
20260831052501 70 265 7.0 14.0 0.00 0.02 0.02 45 1023.1
20260831052434 70 267 7.0 14.0 0.00 0.02 0.02 45 1023.1
20260831052333 70 251 7.0 14.0 0.00 0.02 0.02 45 1023.2
20260831052235 70 259 7.0 14.0 0.00 0.02 0.02 45 1023.1
20260831052134 70 266 7.0 14.0 0.00 0.02 0.02 45 1023.1
20260831052033 70 266 7.0 14.0 0.00 0.02 0.02 45 1023.1
20260831052000 70 313 7.0 17.0 0.00 0.02 0.02 45 1023.1
20260831051934 70 312 7.0 17.0 0.00 0.02 0.02 45 1023.1
20260831051833 71 263 7.0 17.0 0.00 0.02 0.02 45 1023.1
20260831051728 71 254 8.0 17.0 0.00 0.02 0.02 45 1023.1
20260831051635 70 321 8.0 17.0 0.00 0.02 0.02 45 1023.1
20260831051459 71 198 9.0 17.0 0.00 0.02 0.02 44 1023.0
20260831051428 71 269 9.0 17.0 0.00 0.02 0.02 45 1023.1
20260831051327 70 213 9.0 17.0 0.00 0.02 0.02 45 1023.2
20260831051222 70 259 9.0 17.0 0.00 0.02 0.02 45 1023.2
20260831051122 70 284 9.0 17.0 0.00 0.02 0.02 45 1023.4
20260831051020 70 267 9.0 17.0 0.00 0.02 0.02 45 1023.5
20260831050959 70 286 9.0 18.0 0.00 0.02 0.02 45 1023.5
20260831050920 70 266 9.0 18.0 0.00 0.02 0.02 45 1023.5
20260831050819 70 262 10.0 18.0 0.00 0.02 0.02 45 1023.4
20260831050715 70 222 9.0 18.0 0.00 0.02 0.02 45 1023.5
20260831050614 70 247 9.0 18.0 0.00 0.02 0.02 46 1023.6
20260831050600 70 232 8.0 18.0 0.00 0.02 0.02 46 1023.6
20260831050414 69 274 8.0 18.0 0.00 0.02 0.02 46 1023.6
20260831050317 69 281 7.0 18.0 0.00 0.02 0.02 47 1023.7
20260831050110 69 240 7.0 18.0 0.00 0.02 0.02 48 1023.8
20260831050020 68 254 6.0 13.0 0.00 0.02 0.02 49 1023.8
20260831050013 68 263 6.0 13.0 0.00 0.02 0.02 49 1023.8
20260831045808 68 250 5.0 12.0 0.00 0.02 0.02 51 1023.8
20260831045705 68 209 5.0 10.0 0.00 0.02 0.02 52 1023.8
20260831045604 68 248 5.0 10.0 0.00 0.02 0.02 53 1023.8
20260831045503 68 232 5.0 10.0 0.00 0.02 0.02 53 1023.8
20260831045441 68 232 5.0 10.0 0.00 0.02 0.02 53 1023.8
20260831045407 68 248 5.0 10.0 0.00 0.02 0.02 54 1023.8
20260831045158 68 223 5.0 10.0 0.00 0.02 0.02 55 1023.9
20260831045058 68 227 4.0 9.0 0.00 0.02 0.02 56 1023.9
20260831044958 67 265 4.0 8.0 0.00 0.02 0.02 57 1023.9
20260831044934 67 255 4.0 8.0 0.00 0.02 0.02 57 1023.8
20260831044858 67 260 4.0 8.0 0.00 0.02 0.02 57 1023.8
20260831044758 67 271 4.0 8.0 0.00 0.02 0.02 58 1023.9
20260831044551 67 277 4.0 9.0 0.00 0.02 0.02 60 1023.9
20260831044450 67 259 5.0 10.0 0.00 0.02 0.02 60 1023.8
20260831044428 67 259 5.0 10.0 0.00 0.02 0.02 61 1023.9
20260831044349 67 261 5.0 10.0 0.00 0.02 0.02 61 1023.9
20260831044250 67 289 4.0 10.0 0.00 0.02 0.02 62 1023.9
20260831044146 67 279 4.0 10.0 0.00 0.02 0.02 62 1023.8
20260831044051 67 277 4.0 10.0 0.00 0.02 0.02 62 1023.8
20260831043922 66 288 4.0 10.0 0.00 0.02 0.02 63 1023.8
20260831043843 66 322 4.0 10.0 0.00 0.02 0.02 63 1023.8
20260831043743 66 336 3.0 10.0 0.00 0.02 0.02 64 1023.9
20260831043638 66 280 3.0 10.0 0.00 0.02 0.02 64 1023.8
20260831043538 66 307 2.0 10.0 0.00 0.02 0.02 65 1023.8
20260831043438 66 313 2.0 6.0 0.00 0.02 0.02 65 1023.9
20260831043416 66 308 2.0 6.0 0.00 0.02 0.02 64 1023.9
20260831043344 66 355 2.0 6.0 0.00 0.02 0.02 64 1023.9
20260831043133 65 329 2.0 6.0 0.00 0.02 0.02 63 1023.8
20260831043032 65 355 2.0 4.0 0.00 0.02 0.02 63 1023.8
20260831042936 65 16 2.0 4.0 0.00 0.02 0.02 63 1023.7
20260831042734 65 338 2.0 4.0 0.00 0.02 0.02 63 1023.6
20260831042526 65 275 2.0 4.0 0.00 0.02 0.02 63 1023.6
20260831042405 65 234 2.0 6.0 0.00 0.02 0.02 63 1023.6
20260831042326 65 234 2.0 6.0 0.00 0.02 0.02 63 1023.5
20260831042233 65 234 2.0 7.0 0.00 0.02 0.02 64 1023.5
20260831042024 65 244 3.0 7.0 0.00 0.02 0.02 63 1023.4
20260831041922 65 264 3.0 7.0 0.00 0.02 0.02 63 1023.5
20260831041858 65 223 3.0 7.0 0.00 0.02 0.02 63 1023.5
20260831041838 65 223 3.0 7.0 0.00 0.02 0.02 63 1023.4
20260831041418 65 238 3.0 7.0 0.00 0.02 0.02 63 1023.4
20260831041352 65 231 3.0 7.0 0.00 0.02 0.02 63 1023.4
20260831041316 65 239 4.0 7.0 0.00 0.02 0.02 63 1023.4
20260831041213 65 221 3.0 7.0 0.00 0.02 0.02 64 1023.2
20260831041111 65 240 3.0 7.0 0.00 0.02 0.02 65 1023.2
20260831041011 65 209 3.0 7.0 0.00 0.02 0.02 65 1023.2
20260831040910 65 235 3.0 7.0 0.00 0.02 0.02 66 1023.2
20260831040846 65 244 3.0 7.0 0.00 0.02 0.02 66 1023.2
20260831040810 64 235 3.0 7.0 0.00 0.02 0.02 66 1023.2
20260831040707 64 242 3.0 7.0 0.00 0.02 0.02 66 1023.2
20260831040602 64 251 3.0 7.0 0.00 0.02 0.02 68 1023.2
20260831040502 64 243 2.0 7.0 0.00 0.02 0.02 68 1023.2
20260831040401 64 243 2.0 7.0 0.00 0.02 0.02 69 1023.1
20260831040341 64 220 2.0 7.0 0.00 0.02 0.02 69 1023.1
20260831040301 64 250 2.0 5.0 0.00 0.02 0.02 69 1023.1
20260831040201 64 219 2.0 5.0 0.00 0.02 0.02 69 1023.1
20260831040100 64 234 1.0 4.0 0.00 0.02 0.02 69 1023.1
20260831040000 64 253 1.0 4.0 0.00 0.02 0.02 69 1023.1
20260831035834 64 253 1.0 4.0 0.00 0.02 0.02 70 1023.1
20260831035802 64 253 1.0 4.0 0.00 0.02 0.02 70 1023.1
20260831035551 64 211 1.0 4.0 0.00 0.02 0.02 70 1023.0
20260831035449 64 211 1.0 4.0 0.00 0.02 0.02 70 1023.1
20260831035350 63 211 1.0 4.0 0.00 0.02 0.02 71 1023.1
20260831035328 63 211 1.0 4.0 0.00 0.02 0.02 71 1023.0
20260831035256 63 211 1.0 4.0 0.00 0.02 0.02 71 1023.0
20260831035046 63 211 1.0 4.0 0.00 0.02 0.02 71 1023.0
20260831034953 63 211 1.0 4.0 0.00 0.02 0.02 71 1023.0
20260831034823 64 211 1.0 4.0 0.00 0.02 0.02 71 1023.0
20260831034746 64 211 1.0 3.0 0.00 0.02 0.02 71 1023.0
20260831034643 64 211 1.0 3.0 0.00 0.02 0.02 71 1023.0
20260831034538 64 211 1.0 3.0 0.00 0.02 0.02 71 1023.0
20260831034438 64 211 1.0 3.0 0.00 0.02 0.02 71 1023.0
20260831034317 64 211 1.0 3.0 0.00 0.02 0.02 71 1022.9
20260831034238 64 211 1.0 3.0 0.00 0.02 0.02 71 1022.9
20260831034150 64 211 1.0 3.0 0.00 0.02 0.02 71 1022.9
20260831033811 64 211 1.0 4.0 0.00 0.02 0.02 71 1022.9
20260831033733 64 194 1.0 4.0 0.00 0.02 0.02 72 1023.0
20260831033632 64 200 1.0 4.0 0.00 0.02 0.02 72 1022.9
20260831033530 64 207 1.0 4.0 0.00 0.02 0.02 72 1023.0
20260831033430 64 207 1.0 4.0 0.00 0.02 0.02 72 1023.0
20260831033305 64 179 1.0 4.0 0.00 0.02 0.02 72 1023.0
20260831033227 64 179 1.0 4.0 0.00 0.02 0.02 72 1023.0
20260831033125 64 179 1.0 4.0 0.00 0.02 0.02 72 1023.1
20260831033020 64 179 1.0 4.0 0.00 0.02 0.02 72 1023.1
20260831032919 64 179 1.0 4.0 0.00 0.02 0.02 72 1023.1
20260831032820 64 179 1.0 4.0 0.00 0.02 0.02 72 1023.1
20260831032758 64 179 1.0 4.0 0.00 0.02 0.02 72 1023.1
20260831032720 64 254 0.0 3.0 0.00 0.02 0.02 72 1023.1
20260831032619 64 254 0.0 3.0 0.00 0.02 0.02 72 1023.0
20260831032520 64 254 0.0 1.0 0.00 0.02 0.02 72 1023.0
20260831032418 64 254 0.0 2.0 0.00 0.02 0.02 73 1023.0
20260831032359 64 254 0.0 2.0 0.00 0.02 0.02 73 1023.0
20260831032216 64 254 1.0 4.0 0.00 0.02 0.02 73 1022.9
20260831032121 64 254 1.0 4.0 0.00 0.02 0.02 73 1022.9
20260831031912 64 254 2.0 7.0 0.00 0.02 0.02 73 1022.9
20260831031812 64 254 2.0 7.0 0.00 0.02 0.02 73 1022.9
20260831031746 63 254 2.0 7.0 0.00 0.02 0.02 73 1022.9
20260831031709 64 254 2.0 7.0 0.00 0.02 0.02 74 1022.9
20260831031611 63 254 2.0 7.0 0.00 0.02 0.02 74 1023.0
20260831031403 63 254 3.0 7.0 0.00 0.02 0.02 74 1022.9
20260831031320 63 254 2.0 7.0 0.00 0.02 0.02 74 1022.9
20260831031312 63 254 2.0 7.0 0.00 0.02 0.02 74 1022.9
20260831031007 63 251 2.0 5.0 0.00 0.02 0.02 74 1022.9
20260831030800 63 240 1.0 4.0 0.00 0.02 0.02 74 1022.8
20260831030735 63 240 1.0 3.0 0.00 0.02 0.02 74 1022.6
20260831030658 63 240 1.0 3.0 0.00 0.02 0.02 74 1022.6
20260831030559 63 240 1.0 3.0 0.00 0.02 0.02 74 1022.8
20260831030442 63 240 0.0 4.0 0.00 0.02 0.02 74 1022.6
20260831030151 63 240 1.0 7.0 0.00 0.02 0.02 73 1022.6
20260831030049 63 240 1.0 7.0 0.00 0.02 0.02 73 1022.6
20260831025948 63 240 2.0 7.0 0.00 0.02 0.02 73 1022.6
20260831025848 63 240 2.0 8.0 0.00 0.02 0.02 73 1022.6
20260831025748 63 240 2.0 8.0 0.00 0.02 0.02 73 1022.6
20260831025723 63 240 3.0 8.0 0.00 0.02 0.02 73 1022.6
20260831025646 63 240 3.0 8.0 0.00 0.02 0.02 74 1022.6
20260831025544 63 240 3.0 8.0 0.00 0.02 0.02 74 1022.8
20260831025439 63 240 3.0 8.0 0.00 0.02 0.02 74 1022.8
20260831025337 63 224 2.0 8.0 0.00 0.02 0.02 74 1022.8
20260831025238 63 242 2.0 8.0 0.00 0.02 0.02 74 1022.8
20260831025217 63 244 2.0 8.0 0.00 0.02 0.02 74 1022.8
20260831025138 63 252 2.0 8.0 0.00 0.02 0.02 74 1022.9
20260831025037 63 217 1.0 8.0 0.00 0.02 0.02 74 1022.9
20260831024936 63 244 1.0 8.0 0.00 0.02 0.02 74 1022.9
20260831024837 63 242 1.0 5.0 0.00 0.02 0.02 74 1022.8
20260831024734 63 242 1.0 3.0 0.00 0.02 0.02 74 1022.8
20260831024710 63 229 1.0 3.0 0.00 0.02 0.02 74 1022.8
20260831024633 63 229 1.0 2.0 0.00 0.02 0.02 73 1022.8
20260831024532 63 229 1.0 3.0 0.00 0.02 0.02 73 1022.8
20260831024438 63 229 1.0 3.0 0.00 0.02 0.02 73 1022.8
20260831024205 63 238 1.0 3.0 0.00 0.02 0.02 73 1022.8
20260831024127 63 238 1.0 3.0 0.00 0.02 0.02 73 1022.8
20260831024026 63 238 1.0 4.0 0.00 0.02 0.02 73 1022.8
20260831023926 63 238 1.0 4.0 0.00 0.02 0.02 73 1022.6
20260831023830 63 238 1.0 4.0 0.00 0.02 0.02 73 1022.6
20260831023659 63 238 1.0 4.0 0.00 0.02 0.02 73 1022.6
20260831023626 63 238 1.0 4.0 0.00 0.02 0.02 73 1022.6
20260831023419 63 238 1.0 4.0 0.00 0.02 0.02 73 1022.6
20260831023317 63 238 1.0 4.0 0.00 0.02 0.02 73 1022.6
20260831023231 63 238 0.0 4.0 0.00 0.02 0.02 73 1022.5
20260831023224 63 238 0.0 4.0 0.00 0.02 0.02 73 1022.5
20260831022907 63 133 0.0 0.0 0.00 0.02 0.02 72 1022.6
20260831022809 64 133 0.0 0.0 0.00 0.02 0.02 72 1022.5
20260831022708 64 133 0.0 0.0 0.00 0.02 0.02 72 1022.5
20260831022646 64 133 0.0 0.0 0.00 0.02 0.02 72 1022.5
20260831022608 64 133 0.0 0.0 0.00 0.02 0.02 72 1022.5
20260831022507 64 133 0.0 0.0 0.00 0.02 0.02 72 1022.5
20260831022407 64 133 0.0 0.0 0.00 0.02 0.02 72 1022.4
20260831022322 64 133 0.0 0.0 0.00 0.02 0.02 72 1022.4
20260831022208 64 133 0.0 0.0 0.00 0.02 0.02 72 1022.4
20260831022002 64 133 0.0 0.0 0.00 0.02 0.02 72 1022.4
20260831021902 64 133 0.0 0.0 0.00 0.02 0.02 72 1022.4
20260831021848 64 133 0.0 0.0 0.00 0.02 0.02 72 1022.4
20260831021558 64 133 0.0 0.0 0.00 0.02 0.02 71 1022.4
20260831021455 64 133 0.0 0.0 0.00 0.02 0.02 71 1022.5
20260831021355 64 133 0.0 0.0 0.00 0.02 0.02 71 1022.5
20260831021301 64 133 0.0 0.0 0.00 0.02 0.02 71 1022.4
20260831021129 64 133 0.0 0.0 0.00 0.02 0.02 71 1022.4
20260831021051 64 133 0.0 0.0 0.00 0.02 0.02 71 1022.4
20260831020949 64 133 0.0 0.0 0.00 0.02 0.02 70 1022.3
20260831020845 64 133 0.0 0.0 0.00 0.02 0.02 70 1022.3
20260831020744 64 133 0.0 0.0 0.00 0.02 0.02 70 1022.3
20260831020644 64 133 0.0 0.0 0.00 0.02 0.02 70 1022.3
20260831020623 65 133 0.0 0.0 0.00 0.02 0.02 70 1022.2
20260831020544 65 133 0.0 0.0 0.00 0.02 0.02 70 1022.2
20260831020444 65 133 0.0 0.0 0.00 0.02 0.02 69 1022.3
20260831020337 65 133 0.0 0.0 0.00 0.02 0.02 69 1022.2
20260831020237 65 133 0.0 0.0 0.00 0.02 0.02 69 1022.2
20260831020117 65 133 0.0 0.0 0.00 0.02 0.02 69 1022.3
20260831020038 65 133 0.0 0.0 0.00 0.02 0.02 70 1022.2
20260831015937 65 133 0.0 0.0 0.00 0.02 0.02 69 1022.2
20260831015844 65 133 0.0 0.0 0.00 0.02 0.02 69 1022.3
20260831015610 65 133 0.0 0.0 0.00 0.02 0.02 69 1022.2
20260831015550 65 133 0.0 0.0 0.00 0.02 0.02 69 1022.2
20260831015234 65 133 0.0 0.0 0.00 0.02 0.02 68 1022.2
20260831015133 65 133 0.0 0.0 0.00 0.02 0.02 68 1022.2
20260831015105 65 133 0.0 1.0 0.00 0.02 0.02 67 1022.2
20260831015031 65 133 0.0 1.0 0.00 0.02 0.02 67 1022.3
20260831014932 65 133 0.0 1.0 0.00 0.02 0.02 67 1022.2
20260831014829 65 133 0.0 1.0 0.00 0.02 0.02 66 1022.3
20260831014727 66 133 0.0 2.0 0.00 0.02 0.02 66 1022.2
20260831014636 66 133 1.0 3.0 0.00 0.02 0.02 66 1022.3
20260831014630 66 133 1.0 3.0 0.00 0.02 0.02 66 1022.3
20260831014426 66 133 1.0 3.0 0.00 0.02 0.02 66 1022.2
20260831014324 66 133 1.0 3.0 0.00 0.02 0.02 66 1022.2
20260831014222 66 133 1.0 3.0 0.00 0.02 0.02 65 1022.3
20260831014119 66 133 1.0 3.0 0.00 0.02 0.02 65 1022.2
20260831014025 66 133 1.0 3.0 0.00 0.02 0.02 65 1022.2
20260831013817 66 133 1.0 3.0 0.00 0.02 0.02 64 1022.2
20260831013715 67 133 1.0 3.0 0.00 0.02 0.02 64 1022.2
20260831013616 67 133 1.0 3.0 0.00 0.02 0.02 64 1022.3
20260831013547 67 133 1.0 3.0 0.00 0.02 0.02 64 1022.3
20260831013527 67 133 1.0 3.0 0.00 0.02 0.02 64 1022.2
20260831013215 67 133 1.0 3.0 0.00 0.02 0.02 63 1022.0
20260831013114 67 133 1.0 3.0 0.00 0.02 0.02 63 1022.0
20260831013020 67 133 1.0 3.0 0.00 0.02 0.02 63 1022.2
20260831012809 67 133 1.0 3.0 0.00 0.02 0.02 62 1022.2
20260831012708 67 133 1.0 3.0 0.00 0.02 0.02 62 1022.2
20260831012605 67 133 1.0 3.0 0.00 0.02 0.02 62 1022.2
20260831012505 68 133 1.0 2.0 0.00 0.02 0.02 62 1022.2
20260831012405 68 133 1.0 2.0 0.00 0.02 0.02 62 1022.3
20260831012311 68 133 1.0 3.0 0.00 0.02 0.02 62 1022.3
20260831012115 68 133 1.0 3.0 0.00 0.02 0.02 62 1022.3
20260831012108 68 133 1.0 3.0 0.00 0.02 0.02 62 1022.3
20260831011901 68 133 1.0 3.0 0.00 0.02 0.02 62 1022.3
20260831011801 68 133 2.0 3.0 0.00 0.02 0.02 61 1022.3
20260831011700 68 133 2.0 3.0 0.00 0.02 0.02 61 1022.2
20260831011600 68 133 2.0 3.0 0.00 0.02 0.02 61 1022.2
20260831011527 68 133 1.0 3.0 0.00 0.02 0.02 61 1022.2
20260831011458 68 133 1.0 3.0 0.00 0.02 0.02 61 1022.2
20260831011358 68 133 1.0 3.0 0.00 0.02 0.02 61 1022.3
20260831011258 68 133 1.0 3.0 0.00 0.02 0.02 61 1022.3
20260831011157 69 133 1.0 3.0 0.00 0.02 0.02 60 1022.3
20260831011053 69 133 1.0 3.0 0.00 0.02 0.02 61 1022.3
20260831011014 69 133 1.0 3.0 0.00 0.02 0.02 61 1022.2
20260831010955 69 133 1.0 3.0 0.00 0.02 0.02 61 1022.2
20260831010853 69 133 1.0 3.0 0.00 0.02 0.02 61 1022.2
20260831010754 69 133 0.0 2.0 0.00 0.02 0.02 60 1022.3
20260831010651 69 265 0.0 2.0 0.00 0.02 0.02 60 1022.3
20260831010548 69 265 0.0 2.0 0.00 0.02 0.02 60 1022.3
20260831010506 69 265 1.0 4.0 0.00 0.02 0.02 59 1022.3
20260831010452 69 265 1.0 4.0 0.00 0.02 0.02 59 1022.3
20260831010245 69 265 1.0 4.0 0.00 0.02 0.02 59 1022.3
20260831010146 69 265 1.0 4.0 0.00 0.02 0.02 59 1022.3
20260831010045 69 169 1.0 4.0 0.00 0.02 0.02 59 1022.3
20260831005839 69 169 1.0 5.0 0.00 0.02 0.02 58 1022.3
20260831005739 70 169 1.0 5.0 0.00 0.02 0.02 57 1022.3
20260831005639 70 169 1.0 5.0 0.00 0.02 0.02 57 1022.3
20260831005602 70 169 2.0 5.0 0.00 0.02 0.02 57 1022.3
20260831005438 70 169 2.0 5.0 0.00 0.02 0.02 57 1022.3
20260831005338 70 169 2.0 6.0 0.00 0.02 0.02 57 1022.3
20260831005235 70 189 2.0 6.0 0.00 0.02 0.02 57 1022.2
20260831005133 70 189 2.0 6.0 0.00 0.02 0.02 57 1022.3
20260831005028 70 189 2.0 6.0 0.00 0.02 0.02 56 1022.3
20260831004949 70 190 2.0 6.0 0.00 0.02 0.02 56 1022.3
20260831004934 70 180 2.0 6.0 0.00 0.02 0.02 56 1022.3
20260831004727 70 154 2.0 6.0 0.00 0.02 0.02 56 1022.2
20260831004626 71 140 1.0 6.0 0.00 0.02 0.02 56 1022.2
20260831004525 71 126 1.0 6.0 0.00 0.02 0.02 56 1022.3
20260831004425 71 120 1.0 6.0 0.00 0.02 0.02 56 1022.3
20260831004325 71 155 1.0 4.0 0.00 0.02 0.02 55 1022.3
20260831004224 71 155 1.0 3.0 0.00 0.02 0.02 55 1022.3
20260831004121 71 155 1.0 3.0 0.00 0.02 0.02 55 1022.3
20260831004020 71 155 1.0 3.0 0.00 0.02 0.02 55 1022.4
20260831003920 71 155 0.0 3.0 0.00 0.02 0.02 55 1022.4
20260831003820 71 155 1.0 3.0 0.00 0.02 0.02 54 1022.5
20260831003717 71 155 1.0 3.0 0.00 0.02 0.02 54 1022.5
20260831003615 71 155 1.0 3.0 0.00 0.02 0.02 54 1022.5
20260831003514 71 155 1.0 3.0 0.00 0.02 0.02 54 1022.5
20260831003414 71 155 1.0 4.0 0.00 0.02 0.02 54 1022.5
20260831003314 71 155 1.0 5.0 0.00 0.02 0.02 53 1022.5
20260831003211 71 155 1.0 6.0 0.00 0.02 0.02 53 1022.5
20260831003109 71 155 2.0 6.0 0.00 0.02 0.02 53 1022.6
20260831003010 71 155 2.0 7.0 0.00 0.02 0.02 53 1022.5
20260831002919 72 155 2.0 7.0 0.00 0.02 0.02 53 1022.5
20260831002603 72 155 2.0 7.0 0.00 0.02 0.02 52 1022.5
20260831002457 72 127 2.0 7.0 0.00 0.02 0.02 52 1022.4
20260831002419 72 140 2.0 7.0 0.00 0.02 0.02 52 1022.5
20260831002358 72 140 2.0 7.0 0.00 0.02 0.02 52 1022.5
20260831002257 72 143 2.0 7.0 0.00 0.02 0.02 51 1022.5
20260831002204 72 167 1.0 7.0 0.00 0.02 0.02 51 1022.5
20260831001954 72 131 1.0 5.0 0.00 0.02 0.02 50 1022.4
20260831001912 72 131 1.0 5.0 0.00 0.02 0.02 50 1022.4
20260831001858 72 131 1.0 5.0 0.00 0.02 0.02 50 1022.4
20260831001652 72 165 1.0 7.0 0.00 0.02 0.02 50 1022.5
20260831001552 72 140 1.0 7.0 0.00 0.02 0.02 50 1022.5
20260831001452 72 140 1.0 7.0 0.00 0.02 0.02 50 1022.5
20260831001406 72 140 1.0 7.0 0.00 0.02 0.02 50 1022.4
20260831001349 72 140 1.0 7.0 0.00 0.02 0.02 50 1022.4
20260831001259 72 140 1.0 7.0 0.00 0.02 0.02 50 1022.4
20260831000940 72 140 2.0 8.0 0.00 0.02 0.02 50 1022.5
20260831000900 72 140 2.0 8.0 0.00 0.02 0.02 49 1022.5
20260831000839 72 140 2.0 8.0 0.00 0.02 0.02 50 1022.5
20260831000746 72 134 2.0 8.0 0.00 0.02 0.02 50 1022.5
20260831000552 72 140 2.0 8.0 0.00 0.02 0.02 50 1022.5
20260831000545 72 190 2.0 8.0 0.00 0.02 0.02 50 1022.5
20260831000233 72 113 3.0 8.0 0.00 0.02 0.02 50 1022.5
20260831000133 72 129 3.0 8.0 0.00 0.02 0.02 50 1022.5
20260831000034 72 149 3.0 8.0 0.00 0.02 0.02 50 1022.5
20260830235943 73 144 3.0 8.0 0.00 0.02 0.02 50 1022.5
20260830235936 73 92 3.0 8.0 0.00 0.02 0.02 51 1022.5
20260830235729 73 59 4.0 9.0 0.00 0.02 0.02 50 1022.6
20260830235630 73 121 4.0 9.0 0.00 0.02 0.02 50 1022.6
20260830235528 73 109 4.0 9.0 0.00 0.02 0.02 49 1022.6
20260830235423 73 116 4.0 9.0 0.00 0.02 0.02 49 1022.5
20260830235342 73 115 4.0 9.0 0.00 0.02 0.02 49 1022.5
20260830235321 73 131 4.0 9.0 0.00 0.02 0.02 49 1022.5
20260830235228 73 153 4.0 10.0 0.00 0.02 0.02 48 1022.5
20260830235022 73 121 5.0 11.0 0.00 0.02 0.02 49 1022.5
20260830234916 73 141 5.0 11.0 0.00 0.02 0.02 49 1022.5
20260830234838 73 132 5.0 11.0 0.00 0.02 0.02 49 1022.4
20260830234816 73 132 5.0 11.0 0.00 0.02 0.02 48 1022.4
20260830234715 73 129 5.0 11.0 0.00 0.02 0.02 49 1022.4
20260830234615 73 118 4.0 11.0 0.00 0.02 0.02 50 1022.4
20260830234515 73 151 4.0 11.0 0.00 0.02 0.02 50 1022.4
20260830234409 73 123 4.0 11.0 0.00 0.02 0.02 50 1022.5
20260830234331 73 142 4.0 11.0 0.00 0.02 0.02 51 1022.5